GEFSSGP_500_meanwind_060.txt.gz
Wind_Speed
8 9 10 10 10 10 9 9 10 10 11 11 11 11 10 8 7 6 7 8 8 9 8 9 10 10 11 12 13 13 13 13 13 12 11 11 10 9 8 7 6 4 3 2 2 3 4 5 7
7 7 8 8 9 8 8 8 9 9 9 10 10 10 10 8 7 6 6 7 7 7 7 7 8 9 9 10 11 12 12 12 12 11 11 10 9 8 8 7 6 5 3 2 0 1 3 4 6
5 7 8 8 8 7 6 7 7 8 8 9 9 10 10 8 7 5 5 5 6 6 5 5 6 7 7 8 9 9 10 10 10 10 10 9 9 8 7 6 5 4 4 3 2 2 3 4 5
4 5 7 8 7 5 5 5 6 6 7 8 8 9 9 8 6 4 4 4 4 4 3 3 4 5 5 6 6 7 8 8 8 8 8 8 8 7 7 6 5 5 4 4 3 3 3 3 5
2 4 6 7 5 4 4 4 5 6 7 7 7 8 8 7 6 4 2 2 2 2 2 2 2 2 3 3 4 5 5 6 6 7 7 7 6 6 6 6 6 5 5 4 4 3 3 3 4
2 3 5 5 4 3 3 3 4 5 6 6 6 6 6 6 5 4 2 1 1 1 1 1 1 0 0 1 2 2 3 4 4 5 5 6 6 6 6 6 5 5 5 5 4 4 4 4 4
3 3 4 4 4 3 3 3 3 3 4 5 6 6 5 5 4 4 3 2 2 2 3 3 3 3 2 2 2 3 3 4 4 5 5 5 5 5 5 5 6 5 5 5 5 4 4 4 4
5 5 6 5 5 4 3 3 3 3 4 5 5 6 6 6 5 5 4 4 4 5 5 5 5 5 5 5 5 5 5 5 6 6 6 6 6 6 6 6 6 6 6 5 5 5 5 4 4
7 7 7 7 6 6 5 5 6 6 6 6 7 7 7 7 7 7 7 7 7 7 7 7 7 7 7 8 8 7 8 8 8 8 8 8 8 8 8 7 7 7 7 6 6 6 5 5 4
8 9 9 9 9 10 9 10 9 9 9 9 9 10 10 10 10 11 11 11 10 10 10 10 10 10 10 11 10 10 10 10 10 10 10 10 10 10 10 10 9 9 8 8 7 7 6 6 6
9 11 12 12 14 14 14 14 14 13 13 13 13 13 13 13 14 14 15 15 14 14 13 13 13 13 13 13 13 13 13 13 13 12 12 12 12 12 12 12 12 11 11 10 9 8 8 8 8
11 12 13 15 17 18 18 18 17 17 17 17 17 16 16 16 17 17 18 18 18 17 17 17 17 16 16 17 17 17 16 15 15 15 14 14 14 14 14 14 14 14 13 12 12 11 10 10 10
14 14 15 18 19 19 20 21 20 21 20 20 20 20 20 20 21 21 21 21 21 21 21 21 21 21 20 19 19 19 19 18 17 16 15 15 16 16 16 16 16 16 16 15 14 13 13 12 12
15 16 17 19 20 22 22 23 23 24 23 23 23 23 24 24 25 25 26 25 25 24 24 24 24 24 24 23 22 22 21 20 19 18 17 17 18 18 18 18 18 17 17 17 17 16 15 14 14
17 18 20 21 23 24 25 26 26 26 26 27 27 27 28 28 28 28 29 29 29 29 28 28 27 26 26 26 25 25 24 22 22 21 21 20 20 20 19 19 19 19 19 18 18 18 17 16 16
19 21 23 24 26 27 27 28 28 29 29 30 30 30 31 31 32 32 32 32 32 32 32 32 32 31 29 28 28 27 26 25 25 24 24 23 22 22 22 21 20 21 20 20 20 19 19 19 18
22 24 25 27 28 29 30 30 29 30 31 32 32 33 33 34 35 36 36 36 36 36 35 35 35 35 34 32 31 29 29 28 27 26 25 26 26 25 23 23 23 23 22 21 21 21 21 20 20
24 25 27 28 29 29 30 31 31 31 32 33 34 36 37 38 38 38 39 39 39 38 38 37 38 38 37 36 35 33 32 31 30 29 29 28 27 27 26 26 26 25 25 23 22 23 23 22 21
25 26 28 28 28 29 30 31 32 33 34 35 36 37 38 39 40 41 41 42 42 42 40 40 39 38 39 39 39 37 35 35 34 32 30 29 28 29 28 27 27 27 26 25 24 24 24 23 23
24 25 26 27 27 29 30 31 32 33 35 36 37 37 39 40 40 41 41 41 41 42 43 42 41 41 41 41 40 39 38 37 37 35 34 33 32 32 31 30 29 29 28 27 26 25 25 24 25
22 23 25 26 27 29 30 31 32 33 33 35 35 36 38 39 39 40 40 41 41 41 42 41 41 41 40 40 40 39 38 38 37 37 36 35 34 33 32 32 31 28 27 27 27 27 26 26 26
21 22 23 24 25 27 28 29 30 31 31 32 33 34 35 35 36 37 37 38 38 38 39 38 38 38 39 39 39 39 39 38 37 37 36 36 35 35 33 31 31 31 30 29 28 30 29 28 28
19 20 20 22 24 25 25 27 27 27 27 28 29 31 31 31 33 33 32 32 32 33 32 33 34 34 35 36 36 36 36 36 37 36 36 36 36 35 35 34 33 31 31 30 30 29 29 30 29
18 19 20 21 22 22 23 23 24 24 23 25 26 26 27 27 28 27 27 26 26 26 27 29 30 31 31 32 32 33 33 34 35 35 34 34 34 34 34 33 33 32 30 30 30 29 29 29 30
18 19 20 20 20 20 20 20 21 21 21 21 21 22 22 23 22 21 21 21 21 21 22 23 24 25 26 27 28 29 30 31 32 32 32 32 32 32 32 32 31 31 30 29 29 28 29 28 28
17 18 18 19 19 18 18 18 18 19 19 19 19 19 19 20 19 17 17 17 17 18 18 18 17 19 21 22 22 23 25 26 27 28 28 29 29 30 30 30 29 30 29 29 29 29 29 29 29
16 16 17 17 16 15 15 15 15 16 17 18 18 18 18 17 16 15 14 13 13 14 14 13 13 14 15 16 17 18 20 21 22 22 23 24 25 27 27 27 27 27 27 28 28 28 28 29 30
15 16 16 15 15 14 13 13 14 15 16 16 17 17 18 16 16 14 13 12 11 12 11 10 10 9 9 10 12 13 14 15 16 17 18 19 21 23 23 24 25 25 26 27 27 27 27 28 28
15 15 15 15 15 14 14 13 14 15 15 16 17 17 18 18 17 16 15 13 12 12 11 10 8 6 6 6 7 8 9 9 11 13 14 16 17 18 20 21 22 23 24 24 25 26 26 26 26
15 15 14 14 16 15 14 14 15 16 16 17 18 18 18 18 19 19 17 16 15 14 13 12 11 9 8 6 6 6 5 6 7 8 10 12 13 14 15 17 19 20 21 21 22 23 23 24 24

GEFSSGP_500_meanwind_066.txt.gz
Wind_Speed
11 11 12 11 11 11 9 9 9 10 10 9 9 8 8 7 7 7 8 8 8 9 10 10 10 10 11 11 11 11 11 11 11 10 10 9 9 8 7 7 6 6 5 5 4 5 5 5 5
9 10 10 9 10 8 7 8 8 8 9 8 8 8 7 7 6 7 7 7 7 7 8 8 8 8 9 9 9 9 9 9 9 9 9 9 8 8 7 7 6 5 5 4 4 3 3 3 4
8 8 8 9 8 6 6 6 6 6 7 7 7 7 6 6 5 5 6 6 6 6 6 6 6 6 6 7 7 7 8 8 8 8 8 7 7 7 6 6 6 5 5 4 3 3 2 3 3
6 6 7 7 6 5 4 5 4 4 5 5 5 5 5 4 4 4 4 4 4 5 4 4 4 4 4 5 5 5 6 6 6 6 6 6 6 6 6 5 5 5 4 3 3 2 2 2 2
4 4 5 5 3 3 3 2 3 3 3 4 3 3 3 3 3 3 3 3 4 4 4 4 4 3 3 3 3 4 4 4 4 4 4 4 4 4 4 4 4 4 3 3 2 2 1 1 1
2 2 3 2 1 1 1 1 1 2 2 3 2 2 1 1 1 2 3 3 4 5 5 5 5 5 5 5 4 4 4 3 3 3 3 3 3 3 3 3 3 3 2 2 2 1 1 1 1
1 1 0 0 1 2 2 2 2 2 2 3 3 3 3 2 2 3 4 5 6 6 7 7 8 8 8 8 7 7 6 6 5 4 4 4 3 3 3 3 3 3 2 2 2 2 2 2 2
3 3 3 3 3 4 4 4 4 4 5 5 5 5 5 6 5 6 7 8 8 9 9 10 10 11 11 11 11 10 10 9 8 7 7 6 6 5 5 5 4 4 4 3 3 2 3 2 2
6 5 5 5 6 5 6 6 7 7 7 8 8 8 8 8 9 9 9 10 11 12 12 12 13 14 14 14 14 13 13 12 11 10 10 9 8 8 7 7 7 6 6 5 5 4 4 4 3
8 8 8 8 8 9 9 9 10 10 11 11 11 12 12 12 12 12 13 13 14 15 15 16 16 17 17 17 16 16 16 15 15 14 13 12 11 11 10 9 9 8 8 8 7 7 6 5 5
10 10 10 11 11 11 12 13 13 14 14 14 15 15 15 15 16 16 16 17 18 18 19 20 20 20 20 20 20 19 18 18 18 18 17 16 15 14 13 12 11 10 10 10 9 9 8 8 7
12 12 13 13 14 14 15 16 17 17 18 18 18 19 19 19 19 20 20 20 21 22 22 23 24 24 25 25 23 23 22 21 21 20 20 18 17 16 15 14 13 13 12 12 12 11 11 10 9
13 14 15 16 17 18 19 19 20 20 21 22 22 23 23 24 24 24 25 25 26 26 26 27 27 28 29 28 27 26 25 25 24 22 21 21 20 18 18 17 16 15 15 15 14 14 13 13 12
15 16 17 18 19 20 21 22 23 24 25 25 25 26 27 27 27 28 28 29 30 30 31 31 31 31 32 31 30 30 29 28 27 27 26 24 23 22 21 20 19 18 17 17 16 16 16 15 15
16 18 19 20 21 23 24 24 25 26 27 28 28 28 29 30 30 31 32 33 33 34 34 35 35 35 35 34 33 32 33 32 31 30 29 27 27 26 25 23 22 21 20 18 18 18 18 17 17
18 20 22 22 23 24 26 26 27 28 29 29 30 30 31 32 33 34 35 37 38 37 37 37 37 38 38 38 37 35 34 34 33 32 31 30 30 30 29 26 24 23 23 21 20 20 20 19 19
21 22 24 25 25 26 27 28 28 28 29 30 31 32 33 34 35 36 37 38 39 40 40 40 40 39 39 40 40 39 38 36 35 33 33 32 31 31 31 30 28 26 24 24 23 23 22 21 20
22 24 25 26 26 27 28 29 29 30 31 32 33 34 34 35 36 36 37 38 40 41 42 42 42 42 42 42 42 41 41 40 39 37 36 34 33 32 31 30 29 27 26 25 25 25 24 23 23
23 24 25 25 26 27 28 29 29 30 31 32 32 33 34 34 35 36 38 38 39 40 41 42 42 42 43 43 43 42 42 42 41 41 40 39 36 35 34 31 31 31 28 27 26 26 25 24 24
22 23 24 25 26 27 27 28 28 28 29 30 30 31 31 33 34 35 35 36 37 37 37 38 40 40 41 42 43 42 42 42 41 41 41 41 39 38 37 34 33 32 30 29 28 27 26 26 25
22 22 23 24 24 25 26 26 26 26 26 26 27 27 28 29 30 30 31 33 34 34 34 34 35 36 37 39 40 41 41 41 41 41 41 41 40 40 40 37 35 34 32 31 30 29 28 27 27
20 20 21 22 23 23 24 25 23 24 24 24 24 25 26 26 26 26 27 28 29 29 29 30 31 32 33 34 35 36 38 39 40 40 40 40 39 40 39 39 39 38 35 33 32 31 30 30 29
19 20 20 21 21 22 21 21 22 22 23 23 23 23 23 23 23 23 23 24 24 24 24 25 27 28 29 30 31 32 33 34 36 37 38 38 38 39 38 38 37 37 37 36 35 33 32 31 30
18 18 18 18 18 18 18 18 19 20 20 20 21 21 21 20 20 21 21 20 20 20 20 21 21 21 22 24 26 27 29 30 31 33 35 36 37 37 38 38 38 37 37 37 35 34 32 33 32
15 16 17 17 16 17 16 16 17 18 17 17 17 17 17 17 19 19 18 17 18 18 17 16 16 16 17 17 19 21 23 25 27 29 30 33 34 35 36 37 37 36 36 35 34 34 34 34 34
13 14 14 14 15 15 15 16 16 16 16 16 16 16 17 17 18 18 16 16 16 15 14 12 11 11 11 11 13 15 17 20 22 24 26 28 30 32 33 34 35 36 37 35 34 34 33 32 32
13 12 12 12 13 13 14 14 15 15 15 16 16 16 17 17 17 16 16 15 15 14 12 12 12 10 9 9 9 11 13 15 16 19 21 22 24 26 28 31 32 34 34 33 33 32 32 31 31
11 11 11 12 12 12 13 14 15 15 16 16 16 16 17 17 17 16 17 16 15 14 13 13 12 11 10 8 6 7 7 9 11 12 15 17 19 21 23 26 28 29 30 30 30 31 31 31 31
11 11 11 12 12 12 12 13 14 15 16 16 16 17 17 17 18 18 18 17 15 14 14 14 13 12 11 10 7 5 5 5 6 7 10 12 15 17 19 21 23 24 25 26 28 28 28 29 29
11 11 12 12 12 12 12 13 14 15 16 16 17 17 18 18 19 20 20 19 18 16 16 15 15 14 13 12 10 8 6 4 3 3 5 7 10 12 14 16 18 20 21 22 24 25 26 28 29

GEFSSGP_500_meanwind_072.txt.gz
Wind_Speed
10 10 9 8 6 8 8 8 7 6 5 4 2 2 2 3 2 2 2 3 3 4 4 5 5 5 5 5 5 5 5 5 5 5 5 5 5 4 5 5 6 5 5 6 6 6 6 7 7
8 7 8 6 7 8 8 8 7 5 4 3 2 2 2 1 1 2 3 3 3 3 3 3 3 4 4 4 4 4 4 4 4 4 4 4 4 4 4 4 5 5 5 5 5 5 5 6 6
5 5 6 4 7 8 8 7 7 6 4 4 3 3 2 1 1 2 3 4 4 4 4 3 4 4 4 4 3 4 4 4 4 4 4 4 4 4 4 4 4 5 5 5 5 5 4 5 5
3 4 3 5 6 6 7 7 7 6 5 4 4 3 3 2 3 4 5 5 6 6 5 5 5 5 5 5 5 5 4 4 4 4 4 4 4 4 4 4 5 5 5 5 5 5 4 4 4
2 3 4 5 6 6 6 7 6 6 6 6 5 4 4 5 5 6 6 7 7 7 8 8 8 7 7 7 7 6 6 6 6 6 5 5 5 5 5 5 5 5 5 5 5 5 4 4 4
3 3 4 4 6 6 7 7 7 8 8 7 7 6 6 7 7 8 8 9 9 9 10 10 10 10 10 10 9 9 9 8 8 8 7 7 7 6 6 6 6 6 6 5 5 5 4 4 4
2 2 4 6 6 7 7 8 8 9 10 10 9 8 8 9 10 10 11 11 12 12 12 13 13 13 13 13 13 13 12 11 11 10 10 9 8 8 8 8 7 7 7 6 6 5 5 4 4
4 4 6 7 7 9 10 10 10 10 11 12 12 11 11 11 12 13 14 15 15 16 15 15 16 16 15 15 15 16 16 15 14 13 13 12 11 10 10 10 9 9 9 8 7 6 6 5 5
6 6 7 9 10 12 13 12 12 13 13 14 15 15 15 15 15 16 17 18 18 19 19 19 19 19 18 19 19 18 19 18 18 17 16 15 14 14 13 12 11 11 11 10 9 8 7 7 6
8 7 9 13 15 14 15 15 15 15 15 16 17 18 18 18 19 19 20 20 21 22 22 22 22 22 22 22 22 22 21 21 21 20 20 19 18 17 16 15 14 14 13 12 11 10 9 9 8
11 11 13 15 16 16 16 18 19 19 19 20 20 21 21 21 22 23 23 24 24 25 25 25 26 26 26 25 24 24 24 24 24 24 23 23 22 20 19 18 17 16 16 15 14 13 12 11 10
13 14 16 17 18 19 19 20 21 22 23 23 23 24 24 25 26 26 27 27 28 28 28 29 29 29 29 28 28 28 28 28 27 26 24 25 24 23 21 21 20 19 18 17 17 16 15 14 13
14 16 17 19 20 21 21 22 23 24 25 26 27 27 28 29 30 30 31 31 32 32 32 32 32 32 32 32 32 31 30 31 31 30 28 26 26 25 24 24 23 22 21 20 19 18 17 16 15
17 18 19 20 21 22 23 24 25 27 28 29 30 31 31 32 33 34 34 35 35 35 36 36 36 36 35 35 35 35 33 33 32 32 31 30 29 27 26 26 26 25 23 22 21 20 20 19 18
19 21 22 22 22 24 26 26 27 28 29 30 31 32 32 33 34 35 36 37 37 37 38 38 38 38 38 38 38 37 37 36 35 34 34 33 32 31 28 28 28 28 26 25 24 22 21 21 20
20 22 22 22 23 25 28 28 28 29 30 31 31 32 32 33 34 35 36 37 38 39 39 39 39 39 39 39 39 39 40 39 38 37 35 34 33 33 31 30 30 30 29 28 27 26 24 23 22
19 21 25 26 24 27 29 29 28 29 30 31 32 33 33 34 34 35 36 36 37 38 39 39 39 40 40 40 40 39 40 40 40 39 37 37 36 34 32 32 31 30 30 29 29 29 27 25 24
19 21 25 29 28 29 30 30 30 30 31 31 32 32 33 33 33 34 34 34 34 35 36 37 37 38 39 39 40 40 41 41 40 40 40 38 38 36 35 32 31 32 32 31 30 30 29 27 27
21 23 27 29 29 30 31 30 29 29 29 29 30 30 31 32 32 31 31 31 32 32 33 34 34 35 36 38 39 39 40 40 40 40 40 39 38 38 37 35 34 33 32 32 32 31 29 28 28
22 23 27 28 28 29 30 29 27 26 26 26 27 28 29 29 29 29 29 29 30 30 31 31 31 32 33 35 36 37 38 39 38 39 39 40 39 38 38 38 36 36 34 33 34 33 31 30 29
22 23 25 28 28 26 26 26 24 23 23 24 25 26 27 27 27 28 28 27 27 27 27 28 29 30 30 31 33 34 35 36 37 37 37 38 38 37 37 38 38 36 34 34 33 33 33 32 32
23 22 23 24 24 23 22 24 22 24 24 25 26 26 26 25 25 25 25 24 25 25 25 26 26 27 27 28 29 30 31 32 33 35 36 36 36 36 37 36 37 36 35 34 34 33 33 33 32
20 20 19 19 19 18 19 22 24 24 25 25 25 25 24 23 23 22 22 22 22 22 22 23 22 23 23 24 25 26 28 29 29 30 32 33 33 35 35 35 36 36 35 35 35 35 34 33 33
17 17 16 15 15 16 18 20 24 24 24 24 24 23 22 22 22 21 21 21 20 20 20 20 20 20 20 21 21 22 23 24 25 26 27 28 29 31 32 33 35 35 35 35 36 36 35 33 33
15 15 14 13 15 16 18 20 20 21 22 22 22 22 21 21 20 20 20 20 20 19 19 19 18 18 18 18 17 17 18 19 20 22 23 24 25 27 29 30 32 33 32 34 36 36 35 35 34
13 12 10 8 7 13 15 17 18 19 19 20 21 21 21 20 19 20 20 20 20 19 19 18 17 17 16 15 15 14 13 13 14 16 18 20 22 23 25 27 29 30 31 33 34 35 35 34 34
11 9 9 8 8 10 14 16 15 17 18 19 20 20 20 20 20 20 20 20 20 19 18 18 17 16 15 14 13 12 10 10 10 11 13 15 17 19 21 23 24 26 29 30 32 33 34 34 34
9 8 8 8 8 7 11 15 17 17 18 19 19 19 20 20 21 21 20 20 20 20 19 18 17 16 16 14 13 12 10 9 8 8 9 10 12 14 16 17 19 22 24 26 27 29 30 31 32
8 7 7 8 8 9 10 13 15 16 17 18 18 19 20 21 21 21 20 20 21 20 20 19 19 18 17 16 14 13 12 10 8 7 7 8 9 10 12 14 15 17 19 21 23 25 25 25 27
8 8 8 8 9 9 10 12 14 15 17 18 18 19 20 21 21 21 21 21 21 21 21 21 20 19 18 17 16 15 15 12 10 9 7 6 6 6 7 8 10 12 14 16 18 20 22 22 23

GEFSSGP_500_meanwind_078.txt.gz
Wind_Speed
10 9 8 8 6 7 7 8 9 9 8 7 6 5 5 4 3 3 2 2 2 2 2 1 1 0 0 0 0 1 1 2 2 3 3 4 4 5 6 6 7 7 7 7 7 8 8 9 9
8 6 6 7 6 7 7 8 9 8 7 7 6 6 5 4 3 3 3 2 3 3 3 3 3 2 2 2 2 3 3 3 3 4 4 5 5 6 6 6 7 7 7 7 7 7 7 8 8
5 5 6 6 6 6 7 9 8 8 8 7 6 5 5 4 4 4 4 5 5 5 5 5 5 5 5 5 5 5 5 5 5 5 5 6 6 6 6 7 7 7 7 6 6 6 7 7 7
5 6 6 5 5 6 7 9 9 9 9 8 7 6 5 5 5 6 6 6 7 7 7 7 7 7 7 8 7 8 8 8 8 8 7 7 7 7 7 7 7 7 7 7 7 7 7 7 6
5 6 7 6 6 7 7 8 8 9 8 8 8 7 7 7 7 7 8 8 8 9 9 9 9 10 10 10 10 10 10 10 10 10 10 9 9 9 9 9 8 8 8 8 8 7 7 7 6
5 7 8 8 7 8 8 9 9 8 8 9 9 9 9 9 9 9 9 10 11 11 11 12 12 12 13 13 13 14 14 13 13 12 12 12 11 11 11 10 10 10 9 9 9 8 8 8 7
6 7 8 9 8 8 9 10 10 11 11 11 11 11 12 12 12 12 12 12 13 14 14 15 15 15 16 16 16 17 17 17 16 16 15 14 14 13 13 12 12 12 11 10 10 9 9 8 8
6 8 9 10 9 9 10 11 12 13 14 14 14 14 15 15 15 15 15 15 16 17 17 17 18 18 19 19 20 20 20 20 20 19 19 18 17 16 15 15 14 14 13 12 12 11 10 9 9
8 9 9 9 10 10 11 12 14 16 17 17 18 17 18 18 18 18 18 19 19 19 20 21 21 21 21 22 22 23 23 23 23 22 21 21 21 19 18 18 17 16 16 15 14 13 12 11 10
9 10 10 11 12 13 14 14 15 17 18 19 21 21 21 21 22 22 22 23 23 23 24 24 24 25 25 25 26 26 26 26 26 26 25 23 23 23 22 21 20 19 18 18 17 15 14 13 12
11 11 12 14 15 16 16 17 18 19 20 22 23 23 23 24 24 25 26 26 27 27 27 27 27 28 28 28 28 28 29 29 29 28 28 27 26 25 25 24 23 22 21 20 19 18 16 15 14
12 12 13 15 16 17 18 20 21 22 23 23 24 25 25 26 26 27 28 29 30 30 30 30 31 31 31 31 31 31 30 30 30 30 29 29 29 28 27 26 26 26 24 22 22 20 19 18 16
13 14 15 16 17 19 20 21 23 24 24 24 25 25 26 27 28 29 30 31 32 32 33 34 34 34 33 33 34 34 33 33 33 32 31 30 29 30 30 31 29 28 27 26 25 23 22 21 19
14 15 16 17 18 19 20 22 23 23 24 24 25 26 26 27 28 29 30 31 32 33 34 35 35 36 35 35 35 35 35 34 34 33 32 31 30 29 31 30 30 30 30 29 28 26 25 23 22
15 16 17 18 18 19 21 21 21 23 24 25 26 26 26 27 28 28 29 31 32 33 34 35 35 36 36 36 36 36 36 35 34 34 34 34 33 31 30 31 30 31 31 30 29 29 27 26 24
15 17 17 18 19 19 21 22 23 24 24 24 25 26 27 27 28 29 30 31 32 33 34 35 35 35 36 36 36 36 36 36 36 35 34 34 34 34 32 31 30 31 32 32 31 30 29 28 27
17 17 18 19 21 23 23 24 25 25 24 24 25 26 26 27 27 28 29 30 31 32 32 33 33 34 35 36 36 36 36 36 36 36 35 35 34 34 33 32 32 32 33 34 32 31 29 29 28
17 19 20 22 23 24 24 24 25 24 23 24 24 25 25 26 26 27 28 28 29 29 29 30 30 31 32 33 34 35 35 36 36 36 36 36 35 35 34 33 34 34 34 34 33 31 31 31 30
17 20 21 23 24 23 23 23 22 22 22 22 23 24 25 25 26 27 27 27 27 27 27 27 28 28 29 30 30 31 33 33 33 34 34 35 35 35 35 35 34 35 35 35 34 32 31 31 30
18 20 21 22 22 22 21 21 20 19 19 20 21 22 23 24 25 25 26 26 25 25 25 25 25 25 25 26 27 28 28 29 30 31 33 33 34 35 36 36 36 36 36 35 35 34 32 31 31
17 19 20 21 22 21 20 19 18 17 18 19 20 21 22 23 24 24 23 23 23 23 23 22 22 22 22 23 23 24 25 26 27 28 30 32 33 33 34 36 36 37 37 37 36 34 33 32 32
16 18 19 19 20 19 18 17 17 17 18 19 21 22 23 23 23 23 22 22 22 22 22 21 21 21 20 20 19 20 22 23 24 26 27 29 30 32 33 34 36 37 37 38 39 36 35 35 33
15 16 17 17 16 16 16 16 16 17 18 20 21 22 23 23 23 22 22 22 21 21 21 21 20 19 18 17 17 18 18 20 21 23 24 26 28 30 32 33 34 35 36 37 37 36 36 35 34
13 15 15 15 14 13 14 14 16 17 19 20 21 23 23 23 22 22 22 22 22 21 21 20 20 19 17 16 16 15 15 15 16 18 21 23 25 26 28 30 32 33 36 37 38 38 37 36 35
12 12 12 12 11 11 12 13 15 17 18 19 21 22 23 23 22 22 22 22 22 21 21 20 19 18 16 15 14 14 13 12 13 14 15 17 20 22 24 26 29 31 33 35 36 37 37 37 36
10 10 10 10 10 11 11 13 14 16 17 18 20 22 22 22 22 22 22 22 22 22 21 21 19 17 16 15 14 13 12 10 10 10 11 12 14 17 20 22 25 27 30 32 34 36 37 36 35
8 8 9 9 10 10 11 12 13 15 16 17 19 21 22 22 21 21 22 22 22 22 22 21 20 19 17 16 15 14 12 10 9 8 8 7 9 12 15 18 20 23 25 28 30 33 34 34 33
7 7 8 8 9 10 11 12 13 14 16 17 19 20 21 22 21 22 22 22 22 22 22 22 21 20 19 18 16 15 14 12 9 8 6 5 6 8 11 14 17 19 22 25 27 29 31 31 31
5 6 7 8 9 10 10 12 13 14 15 17 18 20 21 21 21 22 22 22 23 23 23 23 22 21 21 20 19 17 16 14 11 9 8 5 5 6 7 9 11 14 17 19 21 24 27 28 29
5 6 7 8 9 10 11 11 12 13 15 17 18 19 20 21 21 22 22 22 23 23 23 23 23 22 21 20 19 18 17 16 14 12 10 8 6 5 5 6 7 9 11 14 17 19 22 25 26

GEFSSGP_500_meanwind_084.txt.gz
Wind_Speed
9 10 9 9 9 9 8 7 6 7 7 7 5 5 4 4 5 5 5 5 4 4 3 4 3 3 2 2 1 1 1 1 2 2 3 3 4 4 4 5 6 6 6 6 7 6 7 7 7
8 9 9 8 8 8 7 7 6 7 7 6 6 6 5 5 5 5 5 6 6 5 5 5 5 4 4 4 4 3 3 3 3 3 4 4 4 4 5 5 6 6 6 6 6 6 6 6 6
8 9 9 8 8 6 7 7 6 6 6 7 7 7 7 7 7 8 8 7 7 7 8 7 7 7 7 7 6 6 5 5 5 5 5 5 6 6 6 6 6 6 6 6 6 5 5 5 5
7 8 7 8 8 7 7 7 6 6 7 8 9 9 9 9 9 10 10 9 9 9 10 10 9 10 10 9 9 9 9 8 8 8 7 7 7 8 7 7 7 7 7 7 6 6 5 5 5
7 7 7 8 9 7 7 7 7 8 9 9 10 10 10 11 11 11 11 10 11 12 12 12 12 12 11 11 11 11 12 11 11 11 10 10 10 9 9 9 8 8 7 7 7 6 6 5 5
7 8 9 9 9 8 8 8 9 10 10 10 11 12 12 13 13 14 13 13 13 13 13 14 14 14 15 15 14 14 15 14 14 14 13 13 12 12 11 11 11 10 9 9 8 8 7 6 6
8 9 10 10 10 10 10 10 10 11 11 12 12 13 14 14 15 16 16 16 16 16 16 17 16 16 17 17 18 18 18 18 18 17 17 16 15 14 14 13 13 12 11 11 10 9 8 7 7
9 10 11 11 11 12 13 13 13 14 14 15 15 16 16 17 17 18 18 18 18 18 18 18 19 19 19 19 20 21 21 22 21 21 20 19 19 18 17 16 15 14 13 13 12 11 10 9 8
10 11 11 12 13 15 15 16 16 17 17 17 18 19 19 19 20 20 20 21 21 22 22 22 21 21 22 23 24 24 24 24 24 24 23 22 22 21 21 20 18 17 16 15 14 13 12 11 10
11 13 13 14 16 17 17 18 18 19 19 20 21 21 21 21 22 22 22 22 23 24 24 25 25 25 25 26 27 26 26 27 27 26 25 24 24 24 23 22 22 21 20 18 17 16 15 13 12
12 13 14 15 17 18 19 19 20 20 21 22 22 22 23 23 23 24 24 25 25 25 26 26 27 28 28 29 29 30 29 29 29 29 28 27 27 27 25 25 24 24 23 22 20 19 18 16 14
13 14 15 16 18 18 19 20 21 23 23 22 22 22 22 22 23 24 25 25 26 27 27 28 28 29 31 32 33 33 33 32 32 31 31 31 30 30 29 27 26 26 25 25 23 22 21 19 18
14 14 15 17 18 19 21 22 22 22 22 22 22 23 23 24 25 26 27 28 29 29 30 30 30 31 32 33 34 35 35 35 35 35 35 33 32 32 32 31 29 28 27 27 26 25 23 22 21
15 15 16 17 19 20 21 22 22 22 22 22 22 23 24 26 27 27 28 28 29 30 31 31 32 32 32 33 34 35 36 37 37 36 37 36 34 34 33 32 31 30 29 28 28 27 26 25 23
15 16 17 18 19 20 21 21 21 21 22 23 23 24 25 26 27 28 28 29 29 30 32 32 32 32 32 33 33 34 35 36 37 38 38 37 36 36 36 34 32 31 31 30 29 28 28 27 26
15 16 17 18 19 20 21 21 22 22 22 23 24 24 25 25 26 27 27 28 29 30 30 31 31 31 32 32 32 32 33 34 36 37 38 39 38 38 37 36 35 34 32 31 31 30 30 30 29
16 16 18 18 19 19 20 21 21 21 22 23 23 24 24 25 26 27 27 28 28 28 29 29 29 29 29 29 29 30 31 32 34 35 37 38 39 39 39 38 36 35 35 34 32 32 31 31 31
16 17 18 18 18 19 19 19 20 21 21 22 23 23 24 24 25 26 26 26 26 27 27 27 27 27 26 26 26 27 28 29 31 33 35 36 38 40 39 39 38 37 35 35 35 34 33 31 31
16 17 17 18 18 18 18 19 20 20 20 21 22 22 23 24 24 24 24 24 24 25 25 25 24 24 24 24 25 26 26 27 28 30 32 34 35 38 39 39 39 39 38 36 35 35 35 33 33
16 16 17 17 17 17 18 18 18 18 18 19 21 21 22 22 22 23 23 23 23 24 24 23 23 23 22 23 23 23 24 24 24 26 28 30 32 35 37 38 39 40 39 39 38 36 35 34 33
15 15 16 16 17 17 17 16 16 16 17 18 19 20 20 21 22 22 23 23 23 24 24 23 22 22 21 21 21 21 21 21 21 22 23 25 28 31 33 35 37 39 40 40 40 39 37 35 34
13 14 15 15 15 15 14 14 14 14 16 17 18 20 21 22 22 23 23 23 23 24 23 22 21 21 20 19 19 19 18 18 18 19 20 22 24 27 30 31 34 37 39 39 39 39 38 37 36
12 13 13 13 12 12 12 12 13 14 15 16 18 20 21 22 23 23 23 23 23 23 23 22 20 19 19 18 17 17 16 16 16 16 18 19 21 23 26 28 31 33 36 37 39 39 38 37 36
10 11 11 10 10 10 10 11 12 14 15 16 18 20 21 22 22 23 23 23 23 23 23 23 21 20 19 18 17 16 15 14 14 14 15 15 17 19 22 26 28 30 32 35 37 37 38 39 38
8 9 9 9 8 9 10 11 12 13 14 16 18 20 21 21 22 22 23 23 23 23 24 23 22 21 20 18 17 16 14 13 12 12 12 12 13 16 19 22 25 28 30 32 34 35 37 38 38
6 7 7 7 7 8 8 10 12 13 15 16 18 19 20 20 21 23 23 24 24 24 24 24 23 22 21 19 18 16 14 13 12 11 10 10 10 11 14 17 19 23 26 29 32 33 35 35 36
4 5 5 6 6 7 8 10 11 13 15 16 18 18 19 20 21 22 23 24 24 24 24 24 24 24 22 21 20 18 16 14 13 11 10 10 10 10 11 13 15 18 22 25 27 29 32 34 34
2 3 4 4 5 6 8 9 11 12 14 16 17 18 20 21 22 22 23 23 24 24 24 24 24 24 23 22 21 19 18 16 14 13 11 10 8 8 9 9 12 15 18 22 24 26 28 30 31
0 2 3 4 6 7 8 9 10 12 14 16 17 18 19 21 22 23 23 23 24 24 24 25 25 25 24 23 22 21 20 18 16 15 12 10 8 7 7 8 9 11 14 16 19 21 23 25 27
2 2 3 4 6 7 8 9 10 12 14 15 17 18 19 21 22 23 23 23 24 24 24 25 25 25 24 24 23 22 21 20 19 17 14 12 10 9 8 7 8 9 10 12 14 17 20 22 24

GEFSSGP_500_meanwind_090.txt.gz
Wind_Speed
9 9 9 9 9 8 7 5 4 4 4 4 3 3 4 4 4 4 4 4 4 4 4 5 5 5 6 6 6 7 8 8 9 10 11 11 11 11 10 10 9 9 9 8 7 7 7 7 6
8 8 8 7 8 8 6 5 5 5 4 4 4 4 4 5 5 5 6 7 7 7 6 7 7 8 8 8 8 9 9 10 10 10 11 11 11 11 11 11 10 9 9 8 8 7 6 6 6
6 7 7 7 7 6 6 5 5 5 6 5 6 6 6 7 7 7 8 9 9 9 8 8 9 10 11 11 11 11 12 12 11 11 12 12 12 12 12 12 11 10 9 9 8 8 7 6 6
5 6 6 7 6 5 5 5 6 7 7 7 8 8 8 9 10 10 10 10 10 11 11 11 11 12 13 13 13 13 14 14 14 13 13 13 13 13 13 13 12 11 10 10 9 9 8 7 6
4 5 6 6 6 6 6 7 8 8 9 9 10 10 11 12 12 12 12 12 12 13 14 14 14 14 15 15 16 16 16 16 16 16 15 15 15 14 14 14 13 12 11 11 10 10 9 8 7
4 5 6 6 6 7 8 9 11 10 11 12 12 13 14 15 15 16 15 16 16 15 16 16 16 16 17 17 19 19 19 19 18 17 17 17 17 17 16 16 15 14 13 12 11 11 10 9 8
6 6 7 7 7 9 11 12 12 12 14 14 15 16 17 18 18 19 18 19 18 18 19 19 20 20 20 20 20 20 21 21 21 21 19 19 19 19 19 18 17 16 14 14 13 12 12 11 10
7 8 9 10 10 12 13 14 14 15 16 16 17 18 19 19 20 20 20 20 20 21 21 21 21 22 23 23 23 23 23 23 23 23 22 21 21 21 21 20 19 18 17 16 15 14 13 12 12
9 9 10 11 12 13 15 16 16 17 17 18 19 20 20 20 20 20 21 21 22 22 24 24 24 25 25 26 26 27 26 26 26 25 24 23 23 22 23 23 22 21 20 19 18 16 15 14 14
10 10 12 13 14 15 16 17 18 18 18 19 20 20 20 21 21 21 22 23 24 25 26 26 26 27 28 29 30 29 29 29 28 27 27 27 26 25 25 24 25 24 22 21 20 19 17 16 16
11 12 13 14 15 16 17 18 19 20 19 20 20 20 20 21 21 22 23 24 25 26 27 28 28 29 30 31 32 32 32 32 32 31 30 30 28 28 28 27 26 26 25 23 23 22 20 19 17
12 13 14 16 16 17 18 19 20 20 20 20 20 21 21 22 22 23 24 25 26 27 28 29 30 31 32 33 34 34 35 35 35 35 35 33 32 31 30 30 29 28 28 26 24 24 22 21 20
13 14 15 16 17 17 19 20 20 20 20 20 20 21 22 23 24 24 25 25 26 27 27 29 30 31 32 33 34 35 36 37 38 38 38 37 36 34 34 31 30 30 29 27 25 26 25 24 23
14 15 15 16 17 18 19 19 19 19 20 21 21 22 23 23 24 25 25 26 26 27 27 28 29 29 30 31 32 34 35 36 38 39 39 39 38 38 36 36 34 33 32 30 28 27 26 25 25
14 15 15 16 17 18 19 18 18 19 19 20 21 22 22 23 24 24 25 25 26 26 26 27 27 27 28 29 30 31 33 35 36 37 38 39 40 39 38 38 37 36 34 32 31 31 28 28 27
14 15 15 16 17 17 18 17 18 19 19 20 21 22 22 22 23 24 24 24 24 24 24 25 25 26 26 27 27 28 29 30 33 35 37 37 39 39 40 39 39 37 36 34 33 32 30 30 29
14 15 15 16 17 17 16 17 17 18 19 20 20 21 21 22 23 23 23 22 23 23 23 24 24 23 23 24 24 24 25 26 28 31 33 35 37 38 39 39 40 39 38 37 36 35 33 32 31
14 15 15 17 16 16 16 16 17 17 18 18 19 20 21 22 22 22 22 22 22 22 23 23 23 22 22 22 22 22 22 23 25 26 29 31 34 35 37 38 39 40 39 39 37 37 36 35 34
14 14 15 16 15 15 14 15 15 16 16 17 18 19 20 21 21 22 22 22 22 22 22 22 22 22 22 21 20 20 20 21 22 24 27 29 31 33 35 36 37 38 38 39 39 38 37 37 36
13 13 14 14 13 13 12 13 13 14 15 16 17 18 19 20 21 21 21 21 22 22 22 22 22 21 21 20 19 19 19 19 20 21 23 26 28 30 32 35 36 37 38 39 39 40 40 39 38
12 12 13 12 11 10 11 11 11 12 14 15 16 17 18 19 19 20 21 21 22 22 22 22 21 21 20 19 18 18 17 17 17 18 19 21 24 27 29 31 34 37 38 39 40 41 41 41 40
12 11 10 10 9 9 9 9 11 12 13 14 15 16 17 19 19 20 21 22 23 22 22 22 22 21 20 19 17 16 15 15 15 15 16 17 19 21 24 27 30 33 35 38 40 41 42 42 41
10 9 8 7 7 7 7 8 10 11 12 14 15 16 17 18 19 20 21 22 23 23 22 22 22 21 20 19 18 16 15 13 12 12 13 14 15 18 20 23 26 29 31 34 37 39 41 41 42
9 7 6 5 5 5 6 7 9 10 11 13 14 16 17 18 19 20 21 22 22 23 22 22 22 22 21 20 19 17 16 14 13 11 11 11 12 15 17 19 22 24 27 30 33 36 39 40 40
7 5 4 3 3 4 5 6 7 9 11 12 14 15 17 18 20 20 21 21 22 22 23 22 23 23 22 21 20 19 17 15 14 12 11 10 11 12 13 16 18 21 24 26 28 32 35 37 37
5 3 2 1 2 3 4 6 7 9 10 12 14 15 17 18 19 20 20 21 22 22 23 23 23 23 23 22 21 20 19 17 15 14 12 10 9 9 10 12 15 17 20 22 24 27 30 33 35
4 3 2 1 1 2 4 6 7 9 10 12 13 15 17 18 19 20 21 21 22 22 23 23 23 23 23 23 22 21 20 18 17 15 14 12 10 9 9 9 11 13 16 19 21 24 27 29 32
4 3 3 2 1 2 3 5 7 8 10 11 13 15 16 17 18 19 21 21 22 23 23 23 24 24 24 24 23 23 22 21 19 17 16 14 13 11 9 9 9 11 13 15 17 20 23 26 29
5 4 4 3 2 2 3 4 6 8 9 11 12 14 15 17 18 19 20 21 22 23 24 23 24 24 24 24 24 24 23 22 21 19 17 16 15 12 10 9 8 8 10 12 14 16 18 21 24
6 6 5 4 2 2 3 4 5 7 9 10 12 13 15 16 17 18 19 21 22 23 23 24 24 24 25 25 25 25 25 24 22 21 19 18 17 15 13 10 8 6 6 8 10 13 15 17 20

GEFSSGP_500_meanwind_096.txt.gz
Wind_Speed
8 8 7 7 6 5 5 6 5 6 7 7 8 8 8 8 9 10 11 11 11 11 11 11 11 11 11 11 11 10 10 10 11 12 13 14 15 15 15 15 15 15 15 14 13 13 11 10 10
7 7 7 6 6 6 7 7 7 8 9 9 9 9 9 10 10 11 12 13 13 13 13 13 13 13 13 14 14 14 13 13 13 13 14 15 15 15 15 16 16 15 15 15 14 13 12 11 10
6 6 7 6 5 6 7 8 8 9 10 11 11 11 11 12 12 13 14 15 15 15 14 14 15 15 15 16 16 16 16 16 15 15 15 15 16 16 16 16 16 16 15 15 14 13 12 11 10
6 7 7 6 7 8 8 10 11 11 12 12 12 13 13 14 15 15 16 17 16 17 17 17 18 18 18 18 18 18 18 19 18 18 18 17 17 17 18 18 17 17 16 16 15 14 13 12 11
6 6 6 6 7 9 10 11 13 13 14 14 14 15 15 16 16 17 18 18 18 18 18 19 19 20 20 21 21 21 21 21 22 21 21 21 20 20 20 19 19 18 18 17 16 15 14 13 12
6 7 7 7 8 10 11 13 15 15 16 16 17 16 16 17 18 18 19 19 20 20 20 20 20 20 21 22 22 23 23 24 24 24 23 23 23 23 22 22 21 20 19 18 17 16 15 14 13
8 9 9 10 9 11 12 14 16 17 17 18 18 18 18 18 19 20 20 20 21 21 22 22 22 22 23 23 25 24 25 26 27 26 27 26 26 26 25 24 24 22 21 20 19 18 16 15 15
9 9 10 11 11 12 14 16 17 18 18 18 19 19 19 19 20 21 21 22 22 22 23 24 25 25 25 25 26 26 27 27 27 28 27 28 29 28 27 26 26 25 23 22 21 20 19 17 17
11 10 11 13 13 14 16 16 17 18 19 19 19 20 21 21 22 23 23 23 23 24 24 25 25 26 26 27 27 27 28 28 28 28 28 28 28 28 28 28 27 27 26 24 23 22 21 20 19
13 12 13 14 15 16 17 17 18 19 19 20 20 20 21 23 23 24 24 25 25 25 25 26 26 26 27 28 29 29 30 30 30 30 30 29 28 29 29 28 28 28 28 27 26 25 23 23 21
15 15 15 16 16 17 18 18 19 19 19 19 20 22 22 23 23 24 24 25 26 26 27 27 28 28 28 28 28 29 31 32 32 32 31 31 30 29 30 29 28 27 26 27 27 28 25 24 23
15 16 16 16 17 17 18 18 18 19 19 20 21 22 22 23 24 24 25 26 26 26 27 27 28 28 29 29 29 29 30 31 32 33 33 32 31 31 31 31 30 29 27 27 27 28 27 26 25
16 16 16 17 17 17 18 18 18 18 19 20 20 22 22 23 24 25 25 26 26 26 26 27 27 27 28 28 28 29 29 30 31 32 33 33 33 33 32 32 31 31 30 29 28 28 27 27 27
17 16 16 17 17 17 17 17 17 18 19 19 20 21 22 23 24 24 25 25 25 25 25 25 25 25 25 25 26 26 27 28 29 30 32 33 33 33 34 34 33 33 31 30 30 29 28 28 28
16 17 17 16 16 16 17 17 17 17 18 19 20 21 21 23 23 24 24 24 24 24 24 23 23 23 23 23 24 24 24 25 27 29 30 31 32 33 33 34 34 34 33 32 32 31 30 29 28
15 15 15 14 14 15 17 18 17 17 18 19 20 21 21 22 23 23 23 23 23 23 23 22 22 22 22 22 22 23 24 25 26 27 28 29 30 31 32 32 33 33 34 34 34 33 32 32 30
13 13 14 16 14 15 16 18 17 17 18 18 19 20 20 21 22 22 22 22 23 23 22 22 22 21 21 21 22 22 22 23 24 25 26 27 29 29 30 31 32 34 34 34 34 34 33 33 32
13 13 14 17 17 16 16 17 17 15 16 17 18 19 20 21 22 22 22 22 23 23 23 22 22 21 21 21 21 21 21 21 22 22 22 23 25 27 28 29 30 32 33 34 34 34 34 34 33
14 12 13 18 16 16 15 15 16 15 15 17 18 19 20 21 21 21 22 22 22 23 23 22 22 21 21 21 20 20 19 19 19 19 19 20 22 24 25 26 28 30 31 32 34 34 34 33 34
13 13 14 17 15 13 13 13 13 14 15 15 16 17 18 19 20 21 21 22 22 23 23 22 22 21 21 20 20 19 18 17 16 16 16 17 18 20 22 24 25 27 29 30 33 34 34 34 34
14 15 15 15 14 13 11 11 11 12 14 14 15 16 17 18 19 20 21 22 22 22 22 22 22 22 21 21 20 19 18 17 16 15 14 15 16 17 19 21 23 25 26 28 30 32 33 34 34
15 14 13 12 12 10 9 10 11 11 12 13 14 15 16 17 18 19 20 21 22 22 22 22 22 22 22 21 20 19 19 17 16 15 14 13 14 15 16 18 20 22 24 25 28 30 31 33 34
14 12 10 10 9 7 7 8 11 11 12 13 14 15 16 17 18 19 20 20 21 22 22 22 22 22 22 21 21 20 19 18 17 16 15 13 13 13 14 15 17 19 21 23 25 28 30 32 33
12 10 8 6 5 4 6 7 10 11 12 13 13 14 15 16 17 18 19 20 21 22 23 22 22 23 23 22 21 20 20 18 17 16 15 14 13 12 12 13 15 17 19 21 23 25 28 30 32
11 9 5 3 5 7 7 8 9 10 11 12 13 14 15 15 16 17 19 20 21 22 23 23 23 23 23 23 22 21 20 19 18 17 16 15 14 13 13 12 13 15 17 19 20 23 26 28 30
10 8 7 6 4 8 8 8 7 8 9 10 11 12 13 14 15 17 18 20 21 22 23 23 23 23 24 24 23 23 22 21 19 18 17 17 15 14 13 12 11 12 14 16 18 20 22 25 27
9 9 9 8 7 5 7 6 4 7 7 9 10 11 12 13 15 16 17 19 20 21 23 23 24 24 24 24 24 24 23 22 21 20 19 18 17 15 14 12 10 9 10 12 14 16 19 21 24
10 9 9 8 7 5 5 9 5 5 7 8 9 10 11 13 14 15 17 18 19 21 22 23 24 24 24 25 25 25 25 24 22 22 21 20 19 17 15 12 10 9 8 9 11 13 14 16 19
9 9 9 8 7 7 6 7 5 5 6 7 8 10 11 12 14 15 16 17 19 20 21 23 24 24 25 25 26 26 26 25 24 23 22 21 20 19 17 14 12 9 7 7 8 10 12 14 17
9 9 10 9 8 7 6 5 3 4 5 7 8 9 10 12 13 14 15 17 18 19 20 22 23 24 24 25 26 26 26 25 25 24 23 22 21 21 19 16 13 11 8 6 6 7 9 11 14

GEFSSGP_500_meanwind_102.txt.gz
Wind_Speed
4 4 3 2 5 6 5 5 5 6 6 6 7 8 8 8 9 9 10 10 9 10 11 11 11 11 11 11 11 11 12 12 12 13 13 14 15 16 16 17 17 17 17 17 16 16 16 15 14
4 4 3 3 5 5 5 5 6 7 7 7 8 9 9 9 10 10 11 11 11 12 13 13 13 13 14 14 14 14 14 14 15 15 15 15 16 16 17 17 18 18 17 17 17 17 16 15 14
5 4 5 4 5 5 5 6 7 8 8 9 9 10 10 11 11 11 12 13 14 14 14 15 15 15 16 16 17 17 17 17 17 18 18 17 17 17 18 19 19 19 18 18 18 17 16 16 14
5 6 7 7 7 7 7 6 6 8 10 10 11 11 11 12 12 13 13 14 15 16 16 16 17 17 18 18 19 20 20 21 21 20 20 20 20 19 19 20 21 20 20 19 19 18 17 16 15
6 7 8 9 9 8 8 8 9 9 11 11 12 12 12 13 13 13 14 15 16 17 17 18 19 19 19 20 20 20 21 22 23 24 23 23 23 22 21 21 21 21 21 20 20 19 18 17 15
7 8 10 11 10 9 9 9 11 11 11 12 13 13 13 14 14 15 15 16 16 17 18 19 20 20 21 21 22 21 22 24 24 25 26 26 26 26 24 23 23 23 23 22 21 20 19 18 16
9 10 11 11 11 10 11 11 12 12 13 13 13 14 14 14 15 15 16 16 17 18 19 20 20 21 22 22 23 23 24 24 25 26 28 28 28 28 27 26 26 25 24 24 23 21 20 19 18
11 12 12 12 12 12 12 12 12 12 13 14 14 15 15 15 16 16 17 18 18 19 20 20 20 21 21 22 23 24 25 25 26 27 28 29 30 30 30 30 29 28 27 25 24 24 22 21 20
12 12 13 13 13 13 13 13 14 14 14 14 14 15 16 16 17 17 18 18 19 20 20 20 21 21 22 23 24 25 26 26 27 28 28 29 30 30 31 30 30 30 29 28 26 26 25 23 22
12 13 13 13 13 13 13 13 13 13 13 13 14 14 15 16 17 18 19 19 20 20 21 21 21 22 23 24 25 25 26 27 28 29 29 30 30 30 31 30 30 30 29 28 27 27 26 25 24
14 14 13 13 12 12 12 12 13 14 13 13 14 15 16 17 18 19 20 20 20 21 22 22 22 22 23 23 24 24 25 26 28 29 30 30 30 30 30 31 31 30 30 30 29 27 28 27 26
16 14 14 12 11 11 11 11 12 13 13 13 14 15 17 19 19 20 20 20 21 22 21 21 21 21 21 21 21 22 23 24 26 27 29 30 31 31 31 31 32 31 30 30 29 29 28 28 28
16 14 13 12 12 12 11 10 11 12 12 13 14 16 18 19 19 20 20 21 21 21 21 20 20 20 20 20 20 20 21 22 23 24 26 27 29 31 32 33 33 32 32 32 30 30 30 28 28
16 13 11 11 11 11 11 10 10 11 12 13 14 16 17 18 19 20 20 20 20 20 20 20 20 20 20 19 19 20 20 21 21 22 23 25 26 28 29 31 33 33 33 33 32 31 31 30 28
15 14 11 10 10 11 9 9 10 10 11 12 13 14 16 17 18 19 20 20 20 20 20 20 20 19 19 18 18 19 19 19 20 20 21 22 24 26 27 29 32 33 33 33 32 32 32 32 31
15 14 11 10 10 9 9 9 8 9 10 11 12 14 15 17 18 18 19 19 20 20 20 20 20 19 19 18 18 18 18 18 19 19 20 20 22 24 26 27 29 31 33 32 32 33 33 33 32
14 13 11 11 9 7 7 7 8 9 9 10 11 13 15 16 17 17 18 19 20 21 21 21 20 20 19 18 17 17 18 18 18 18 18 18 19 21 23 25 27 29 31 32 32 33 34 33 34
14 13 12 11 9 7 6 6 7 8 9 9 11 13 14 15 16 17 18 19 21 22 21 21 20 20 19 18 18 18 18 17 17 16 16 16 17 18 19 21 24 27 29 30 31 32 33 34 34
14 13 11 10 8 8 6 5 6 7 8 9 10 12 14 15 17 18 19 20 21 21 21 21 21 20 20 19 19 18 18 18 17 17 16 15 15 16 17 18 20 23 26 28 30 31 32 33 35
14 13 11 9 8 7 6 5 5 5 6 8 10 12 14 15 17 18 19 20 21 21 22 22 21 20 20 20 20 19 19 18 18 17 15 15 14 14 14 15 16 18 21 25 27 29 30 32 33
13 11 9 8 7 6 5 4 3 4 5 7 9 11 13 15 16 17 18 19 20 21 22 22 21 20 21 21 21 20 19 19 18 17 15 14 13 12 12 12 14 15 18 21 24 27 29 30 32
11 9 8 7 7 6 4 3 2 3 4 6 9 11 12 13 15 16 17 18 19 20 21 22 22 21 21 21 21 21 21 20 18 17 16 14 13 12 11 10 11 13 14 17 20 23 26 27 29
10 8 7 8 6 5 4 2 1 2 4 6 8 9 11 13 14 15 16 17 19 20 21 22 22 22 22 22 21 21 21 21 19 18 17 15 13 12 10 9 9 10 12 14 17 20 23 25 27
8 8 8 8 6 5 4 2 1 2 4 5 7 9 10 12 13 14 15 16 18 19 21 22 23 23 23 23 22 22 22 21 20 19 18 17 15 12 10 9 7 8 10 12 15 17 20 23 25
9 8 9 8 7 6 5 3 1 2 3 5 7 8 9 10 12 13 14 15 17 18 20 21 23 23 24 24 23 22 22 22 21 20 19 18 16 13 11 9 7 6 8 10 13 15 17 20 23
8 8 9 9 9 7 6 3 2 1 2 4 6 7 8 9 11 12 13 15 16 18 19 21 22 23 24 24 24 23 22 22 22 21 20 19 17 15 12 10 8 6 6 7 10 12 14 17 19
9 9 9 9 9 8 6 5 3 2 1 3 4 6 7 8 9 11 12 14 15 17 18 20 21 23 24 24 24 24 23 22 22 22 21 20 19 17 14 12 9 7 6 6 7 10 12 14 17
9 9 9 9 9 8 7 6 5 4 1 1 2 4 5 7 8 10 12 13 15 16 18 19 21 22 23 24 24 24 24 24 23 22 22 21 20 19 16 14 11 8 7 6 5 6 9 12 15
9 9 9 9 10 9 7 5 5 3 2 1 1 3 4 6 8 10 11 12 14 16 17 19 20 21 22 23 24 24 24 24 24 23 22 21 21 20 18 16 13 11 8 6 6 5 6 8 12
9 10 10 10 10 9 8 6 6 4 3 1 1 2 4 6 7 9 10 12 13 15 16 18 19 20 21 22 23 24 24 24 24 23 23 22 21 20 19 17 15 13 11 8 6 5 4 5 7

GEFSSGP_500_meanwind_108.txt.gz
Wind_Speed
7 7 8 5 3 3 3 2 3 4 5 6 6 7 7 8 8 9 9 9 10 10 11 11 11 12 12 13 13 13 13 13 13 13 13 14 14 14 14 15 15 16 16 15 15 14 13 12 11
7 7 7 6 5 3 3 4 5 5 6 7 7 8 8 9 9 10 11 11 10 11 12 12 13 13 14 14 15 15 15 15 15 15 15 16 16 15 15 16 16 16 16 16 16 15 14 13 11
7 7 6 6 6 4 4 5 5 6 7 7 7 8 9 10 10 11 12 12 12 12 13 14 15 15 15 16 16 17 17 17 18 18 18 18 18 17 17 17 17 17 17 16 16 16 15 14 12
8 7 6 6 6 5 5 6 6 7 8 7 7 8 9 10 11 12 12 13 13 13 14 15 16 17 17 18 19 19 19 20 20 20 20 20 20 20 20 19 19 19 18 17 17 17 16 15 14
9 9 7 7 6 7 7 8 8 9 8 7 8 8 9 10 12 12 13 13 14 15 16 16 17 18 18 19 20 20 21 21 21 22 22 22 22 22 21 21 21 21 21 20 19 18 17 16 15
11 10 9 8 8 8 10 10 10 10 8 8 8 9 10 11 11 12 13 14 15 16 17 17 17 18 18 19 20 21 22 23 23 23 23 24 24 23 24 23 22 22 21 22 21 20 19 17 16
12 12 10 9 10 10 10 10 11 9 8 8 9 9 10 11 11 13 14 15 16 17 18 19 19 19 20 20 21 22 24 24 24 25 24 24 25 26 26 26 25 24 24 23 23 21 20 19 18
14 13 12 11 11 11 11 11 10 10 9 9 9 9 10 11 12 13 14 15 17 18 19 20 20 20 21 21 22 23 24 25 26 26 26 26 26 26 27 27 27 27 26 25 24 23 22 21 20
15 14 13 13 12 12 12 12 11 10 9 8 8 9 10 11 12 13 14 16 17 18 19 20 20 21 21 21 22 23 24 25 26 27 28 29 29 29 28 28 29 29 28 27 26 25 25 23 23
15 14 13 13 13 13 12 11 10 9 7 7 8 9 10 11 12 13 14 15 17 18 18 19 19 20 20 20 21 21 22 23 25 27 28 29 30 30 30 30 30 29 29 29 28 27 26 25 23
16 15 14 14 13 13 12 10 8 8 7 8 8 9 10 11 12 13 14 15 16 17 18 18 18 18 18 18 19 20 21 22 23 25 27 28 28 29 30 31 31 30 30 30 29 28 27 27 25
16 15 14 14 13 12 11 9 8 8 8 8 8 9 10 11 12 13 14 15 16 17 17 18 18 17 17 17 18 18 19 20 21 22 23 25 27 27 27 28 30 30 31 30 30 29 28 27 26
17 16 15 14 13 12 11 9 8 8 8 8 9 10 10 10 12 13 14 14 15 17 17 18 18 17 17 17 17 18 18 18 19 20 21 22 23 25 26 26 28 30 31 30 30 29 29 28 27
17 16 15 14 12 11 10 10 9 7 8 8 8 9 10 10 11 12 13 14 15 16 17 18 18 18 17 17 18 18 18 17 18 18 19 20 21 23 24 25 26 27 29 30 30 30 30 29 29
16 16 14 12 11 11 10 9 8 7 7 8 8 9 9 9 10 12 13 14 15 17 18 19 19 19 17 17 17 18 17 17 17 17 17 18 19 20 22 23 25 26 27 28 29 30 30 30 30
16 15 14 11 10 9 9 9 8 7 7 7 7 7 7 8 10 11 13 14 16 17 18 19 19 18 17 17 17 17 17 17 17 17 17 17 18 19 20 21 23 25 26 27 28 29 29 30 30
16 14 12 10 9 9 9 8 7 7 7 6 6 6 7 7 9 11 12 14 16 17 18 18 19 19 18 18 18 18 18 18 18 17 17 17 17 17 18 19 21 22 24 25 26 27 28 29 30
16 14 12 10 10 10 10 9 8 7 6 6 6 5 5 7 9 10 12 13 15 17 18 19 19 20 19 19 19 19 19 18 18 18 17 17 16 16 16 17 18 20 21 23 24 25 27 28 29
14 12 10 10 10 10 9 8 8 7 6 6 5 4 4 5 8 10 11 13 15 16 18 19 20 21 20 20 20 20 19 19 19 18 17 16 15 14 14 14 15 16 18 20 22 23 25 27 27
13 12 10 10 10 10 9 8 8 7 6 5 4 4 4 5 7 9 11 13 15 16 17 19 20 21 22 21 21 20 20 20 19 18 17 16 15 14 13 13 13 14 16 18 20 21 23 25 27
13 12 11 10 11 10 9 8 8 7 6 5 4 3 3 4 7 9 11 13 14 16 17 19 20 21 22 22 21 21 21 20 20 19 17 16 15 13 12 11 11 12 13 15 18 20 21 23 25
13 13 12 11 11 11 9 9 8 7 6 5 4 3 3 4 6 8 10 12 14 16 17 19 20 21 22 22 22 22 22 22 21 20 18 16 15 13 11 10 10 10 11 13 15 18 20 22 23
13 13 12 11 11 10 10 9 8 7 6 5 4 3 2 3 5 7 9 11 13 15 17 19 20 21 22 22 23 22 22 22 22 21 19 17 15 13 12 10 10 9 9 10 13 15 17 20 22
13 13 12 11 10 10 9 8 8 7 6 5 4 2 2 3 4 6 9 11 13 15 16 18 20 21 22 23 23 23 23 23 22 21 20 18 16 14 12 10 10 9 8 9 9 11 15 17 20
13 12 11 11 10 9 8 8 8 8 6 5 4 2 1 2 4 6 8 10 12 14 16 17 19 21 22 23 23 23 23 23 23 22 21 19 18 15 13 11 10 8 7 6 7 8 11 14 17
13 12 11 10 9 8 9 8 8 8 7 6 4 3 2 2 4 6 8 10 11 13 15 17 19 20 22 23 24 24 23 23 23 23 21 20 19 17 14 12 11 9 7 6 6 7 9 12 14
12 11 10 11 10 9 8 8 8 8 7 6 5 4 2 2 3 5 7 9 11 13 14 16 18 20 21 22 23 24 24 23 23 22 22 21 20 18 16 13 11 10 8 7 5 5 7 10 12
11 10 11 11 11 10 8 8 9 9 8 7 6 4 3 2 3 5 6 8 10 12 14 16 18 19 21 21 22 23 24 24 24 23 22 21 20 19 18 15 13 11 10 8 6 5 6 8 10
10 10 11 11 11 10 9 8 9 9 8 7 6 5 4 3 3 5 6 8 9 11 13 15 17 19 20 21 22 23 24 24 24 24 23 22 20 19 18 17 15 13 11 9 7 6 5 6 8
10 11 11 11 10 10 9 8 10 10 9 8 7 6 5 4 4 5 6 8 9 11 13 15 16 18 19 20 21 22 23 23 24 24 24 23 21 20 19 18 16 14 12 10 8 6 5 5 5

GEFSSGP_500_meanwind_114.txt.gz
Wind_Speed
5 6 6 5 4 3 1 1 1 2 2 3 4 4 4 5 6 6 7 8 9 9 10 10 11 11 11 12 13 13 13 13 14 15 15 15 16 16 16 16 16 16 17 16 16 15 14 13 12
5 6 6 5 5 4 3 2 2 3 4 4 4 4 5 5 6 7 8 8 9 10 10 11 11 12 13 13 14 15 15 15 16 16 16 17 17 17 18 18 18 18 17 16 16 16 16 14 13
6 6 5 4 4 4 3 3 3 4 6 5 5 5 5 6 7 7 8 9 9 10 10 11 12 13 14 15 16 16 17 17 17 18 18 18 19 19 19 20 20 19 18 17 17 17 17 16 15
7 6 5 5 5 5 4 5 5 5 6 6 5 5 6 6 7 8 9 9 9 10 11 12 13 14 15 16 17 18 18 19 20 20 20 21 20 21 21 21 21 20 20 19 19 18 18 17 16
8 7 6 6 6 6 6 6 6 6 6 6 6 6 6 7 8 9 9 10 10 11 12 13 14 15 16 17 17 19 20 21 21 22 21 22 22 22 22 22 22 22 22 21 20 20 19 18 17
9 8 7 8 7 7 6 6 6 7 6 6 6 7 7 8 8 9 10 11 11 12 14 15 15 16 16 17 19 20 21 22 23 23 23 23 24 23 24 24 24 24 23 23 22 21 20 19 19
10 9 9 9 8 7 6 7 7 7 7 7 7 7 8 8 9 9 10 11 12 13 14 15 16 16 17 18 19 20 21 22 23 24 25 25 25 25 25 25 24 25 24 24 24 22 21 21 20
11 10 10 11 9 8 7 7 8 8 8 7 7 7 7 8 9 9 10 11 12 13 14 15 16 16 17 18 19 19 20 21 22 23 25 26 25 25 26 26 25 25 25 25 25 24 23 22 22
12 12 12 11 9 9 8 8 8 8 7 7 7 7 7 8 8 9 10 11 12 13 13 15 15 16 16 17 17 18 18 20 21 22 23 25 26 26 27 27 27 27 27 26 26 26 25 23 22
14 13 12 10 9 9 9 8 8 8 7 6 6 7 7 7 8 9 10 11 12 12 13 13 14 15 16 16 17 17 18 18 19 20 22 23 25 26 27 27 28 28 28 27 26 26 26 25 24
15 13 12 11 10 10 10 9 8 8 8 7 7 7 7 8 8 9 10 10 10 11 11 12 14 15 16 16 16 16 17 18 18 19 20 21 23 24 25 27 27 27 28 29 28 27 27 27 26
15 13 12 12 11 10 10 9 9 8 7 7 7 6 7 7 8 9 9 9 9 10 11 13 14 15 15 15 15 16 16 17 17 18 18 19 20 21 23 24 25 26 27 28 29 28 27 27 27
15 13 12 12 11 11 10 9 9 9 8 7 6 6 6 6 7 8 8 9 9 10 12 13 14 14 15 15 15 16 16 16 16 17 17 18 19 20 20 21 23 23 25 26 28 28 27 27 27
15 13 12 12 11 10 10 10 10 9 8 7 6 6 5 6 6 7 7 8 9 11 12 13 14 15 16 16 16 16 16 16 16 17 17 17 18 19 20 20 21 22 23 24 25 26 26 26 27
16 14 13 12 12 11 11 10 10 8 8 7 7 6 5 6 6 6 7 8 10 11 12 13 14 15 16 16 16 15 16 16 17 17 17 17 18 18 19 20 20 21 22 23 24 25 26 26 27
16 15 13 12 12 11 10 10 10 8 8 7 6 6 5 5 6 6 7 8 9 10 12 13 14 15 16 16 16 16 16 17 17 17 17 17 17 17 17 18 20 20 21 22 24 24 26 26 26
16 14 13 12 11 9 9 9 9 9 7 7 6 5 4 5 5 5 6 8 9 11 12 13 14 15 16 16 16 17 17 17 17 16 17 16 16 16 16 17 18 19 19 21 22 24 25 26 26
16 15 13 12 11 10 9 9 8 8 7 6 5 5 4 4 4 5 6 7 9 10 12 13 14 15 16 16 17 18 17 17 17 16 16 16 15 15 15 15 16 16 17 18 20 22 24 24 25
16 14 13 13 12 11 10 9 9 8 7 6 5 4 4 4 4 5 6 7 9 10 11 13 14 15 16 17 18 18 18 17 17 17 16 15 14 13 13 13 13 13 14 16 17 19 21 23 24
15 14 13 12 12 11 10 10 9 8 7 6 5 5 4 4 4 4 5 7 8 10 11 12 14 15 16 17 18 18 18 18 17 17 17 16 14 13 12 11 11 11 12 13 15 17 19 21 23
15 15 14 13 11 10 10 10 9 8 7 7 6 5 5 4 4 4 5 6 8 9 11 12 14 15 16 17 18 18 19 18 18 18 17 16 14 12 10 10 10 9 10 10 12 15 17 19 21
15 14 13 12 11 9 9 9 9 8 7 7 6 6 5 4 4 4 4 6 7 9 10 12 14 15 16 17 18 19 19 19 19 19 18 16 14 12 10 9 9 8 8 8 10 11 14 16 18
14 13 12 10 10 9 9 9 8 8 7 7 7 6 5 4 4 3 4 5 7 8 10 11 13 15 17 18 18 19 19 20 20 19 18 17 14 12 11 10 8 8 7 7 7 9 11 13 15
13 12 10 9 9 9 9 9 9 8 8 8 7 7 5 5 4 4 4 5 6 8 9 11 13 15 17 18 18 19 20 20 20 19 19 17 15 13 11 10 9 8 7 5 5 7 9 11 13
12 11 9 9 9 10 9 8 8 9 9 8 8 7 6 5 5 4 4 5 6 8 9 11 13 15 16 17 18 19 20 20 20 19 19 18 16 14 12 10 9 8 6 5 4 5 7 10 12
11 10 9 9 9 9 9 9 9 9 9 9 9 8 7 6 5 4 4 5 6 8 9 11 12 14 16 17 18 19 20 20 20 19 19 18 17 15 13 12 10 9 7 5 4 3 5 7 10
10 10 9 9 8 8 9 9 9 9 10 10 10 9 8 7 6 5 5 5 6 8 9 10 12 13 15 16 18 18 19 20 20 19 18 18 18 16 15 13 11 9 8 6 4 3 3 5 7
9 8 8 8 8 8 9 9 10 10 10 11 11 10 9 8 7 6 6 6 6 7 8 10 11 13 14 16 17 18 19 19 19 19 19 19 18 17 15 14 12 10 8 6 4 2 3 4 6
9 9 8 8 8 8 9 10 11 11 11 11 11 11 10 9 8 7 6 6 6 7 8 9 10 12 13 15 16 17 18 19 19 19 19 18 18 17 16 15 14 12 10 7 5 3 2 2 4
9 9 8 9 9 9 9 10 11 11 11 11 11 11 10 9 8 7 7 6 7 7 8 9 10 11 12 14 15 16 17 18 19 19 19 18 17 17 16 15 14 13 11 8 6 4 3 2 2

GEFSSGP_500_meanwind_120.txt.gz
Wind_Speed
7 7 6 6 6 5 5 4 4 3 4 5 6 7 6 6 7 8 9 10 10 10 11 11 12 12 13 14 14 14 15 15 16 17 17 17 17 17 17 18 18 18 19 19 19 18 18 17 16
8 7 7 7 7 7 6 5 5 5 5 5 7 7 7 7 8 8 9 10 10 11 11 11 12 13 14 14 15 16 16 16 17 17 18 18 18 19 20 20 20 20 20 20 20 19 19 18 18
8 8 7 7 8 8 6 6 6 6 6 6 7 7 8 8 8 9 9 10 11 11 12 12 13 13 14 15 16 17 18 18 18 18 18 19 19 20 21 21 21 21 21 21 21 20 20 19 18
9 8 8 8 8 7 7 6 7 7 6 7 8 8 8 9 9 9 9 10 11 12 12 13 13 14 15 16 17 18 18 19 19 19 19 19 20 21 21 21 22 22 22 22 22 21 20 20 19
10 10 9 9 8 7 8 8 8 7 7 8 8 8 8 9 9 9 10 11 12 13 13 14 15 15 16 16 17 17 18 19 20 20 20 21 21 21 22 21 22 23 23 23 23 22 21 21 21
12 11 10 10 8 9 9 9 9 8 8 9 9 9 8 9 9 10 10 11 12 12 13 14 14 15 16 17 17 17 18 19 20 20 21 21 22 23 24 23 22 23 24 24 24 23 23 23 23
13 12 12 10 10 10 9 9 9 9 9 10 9 9 9 9 10 10 11 11 11 12 12 13 14 15 15 16 17 17 17 18 19 19 20 21 22 23 24 24 25 24 24 25 25 24 23 24 24
15 14 12 11 11 11 10 10 10 10 10 10 10 9 9 10 10 10 10 11 11 11 12 12 13 14 14 15 16 16 17 17 17 18 19 20 21 22 23 24 24 26 25 25 25 25 24 24 24
16 15 13 12 11 11 11 11 10 11 11 10 10 10 10 9 9 9 10 10 10 11 11 11 12 13 14 14 15 16 16 17 17 17 18 19 20 21 22 22 23 24 25 26 25 25 26 24 24
17 15 15 13 12 11 11 12 11 12 11 10 10 10 9 9 9 9 9 9 10 10 10 11 13 14 15 16 16 16 16 16 17 17 17 18 19 20 21 21 21 23 24 25 25 25 26 26 25
17 16 15 13 12 12 12 12 11 11 9 9 8 7 8 8 8 8 8 9 9 9 10 12 14 15 16 17 17 17 17 17 17 17 17 17 18 19 19 20 20 21 22 22 23 24 25 26 25
18 17 15 13 12 12 12 12 11 10 9 9 8 7 8 8 8 8 8 8 9 9 11 13 14 16 16 17 18 18 18 18 17 17 17 17 18 18 19 19 19 20 21 21 22 22 24 25 25
18 17 17 14 13 12 12 12 11 10 10 9 9 8 8 8 8 7 7 7 8 9 11 13 15 15 16 17 18 18 18 18 18 18 18 18 18 18 18 19 19 19 20 21 22 22 23 24 25
18 16 15 14 13 13 12 12 11 10 9 9 9 8 7 7 7 6 6 7 9 10 12 13 14 15 17 18 18 18 18 19 19 19 19 19 19 19 18 18 18 18 18 19 21 22 23 24 25
18 17 16 14 14 13 13 12 11 11 10 9 8 8 7 6 6 6 6 7 9 11 12 13 15 16 17 18 18 19 19 19 19 19 19 19 19 19 18 18 18 18 17 17 19 20 21 23 24
19 17 16 14 13 13 13 12 11 11 9 8 8 7 7 6 5 5 6 7 9 11 12 14 15 16 17 18 19 19 19 19 19 19 19 19 19 19 18 17 17 17 17 17 17 18 20 21 22
17 16 15 15 13 10 11 12 11 10 8 8 8 7 6 5 5 5 5 7 9 10 12 13 14 16 17 18 18 19 19 19 20 20 19 19 19 19 17 16 16 16 16 16 16 17 18 19 21
15 15 14 13 12 10 10 10 9 8 8 7 8 7 6 6 5 5 5 7 8 10 12 13 14 16 17 18 18 19 19 20 20 20 20 19 19 18 16 15 14 14 14 14 15 15 16 18 19
15 14 12 11 8 8 9 9 9 8 7 7 7 7 6 5 4 4 5 7 8 10 11 13 14 15 17 18 19 19 20 20 21 21 20 19 18 17 15 13 13 13 13 13 14 14 15 16 17
14 14 13 11 9 8 9 9 8 7 6 7 7 7 6 5 4 5 5 6 8 9 10 12 14 15 17 18 19 19 20 20 21 21 20 19 18 17 15 13 12 11 11 11 11 11 13 14 16
15 14 12 9 8 8 9 9 7 7 6 7 7 7 7 6 5 5 6 6 7 9 10 12 14 16 17 19 19 20 20 21 21 21 20 19 18 16 15 13 11 10 10 10 10 9 10 12 14
14 12 10 8 7 7 7 7 7 7 6 7 7 7 7 7 6 6 6 7 7 8 10 12 14 16 17 18 19 19 20 21 21 21 20 19 18 17 15 14 12 10 9 9 8 8 9 10 12
12 11 9 8 8 7 7 6 9 9 7 6 7 8 8 7 7 7 7 7 8 9 10 11 13 15 17 18 19 19 20 21 21 21 21 19 18 17 15 14 12 11 10 8 7 7 7 9 10
10 8 6 5 6 6 6 6 8 9 7 7 8 8 8 8 8 7 7 7 8 9 10 11 13 15 16 18 19 19 20 20 21 21 21 20 19 17 16 14 12 11 9 8 7 6 6 7 9
8 7 4 3 3 4 6 7 9 9 9 9 9 8 8 8 8 8 8 8 8 9 10 11 12 14 16 17 18 19 20 20 20 21 21 20 19 17 17 15 13 11 9 8 6 5 4 5 7
8 7 5 2 1 3 6 8 11 10 9 9 9 9 9 8 9 9 8 8 9 9 10 11 12 13 15 16 17 19 20 20 20 21 21 21 19 18 17 15 13 11 9 8 6 5 4 4 5
7 6 5 3 1 1 5 10 12 9 9 9 9 9 9 9 9 9 9 9 9 9 10 11 12 13 14 15 17 18 19 20 20 20 21 21 20 19 18 16 14 11 9 8 6 5 4 3 3
5 5 5 5 4 3 4 9 13 11 9 10 10 10 10 10 10 10 10 10 9 9 10 11 11 12 13 14 16 17 18 19 20 20 20 20 20 19 19 17 15 12 10 9 7 5 4 3 2
5 5 5 5 5 5 7 10 13 14 12 11 11 10 10 11 11 11 11 10 10 10 10 10 11 12 13 14 15 16 17 18 19 20 20 20 20 19 18 17 16 13 11 9 8 6 4 3 3
6 6 7 7 7 8 10 12 13 14 13 12 12 12 11 11 12 12 11 11 10 10 10 10 11 11 12 13 14 15 16 18 18 19 20 20 19 19 18 17 16 15 13 10 9 7 5 3 3

GEFSSGP_500_meanwind_126.txt.gz
Wind_Speed
6 6 5 5 6 6 5 3 2 2 3 3 3 4 4 4 4 5 5 5 6 6 7 8 8 9 9 10 11 12 13 13 14 15 16 16 16 17 17 18 19 19 20 20 21 21 20 20 19
7 6 6 6 7 7 5 4 3 2 2 1 3 4 4 4 4 4 5 6 7 7 7 8 9 9 10 11 12 13 14 15 16 16 16 17 17 18 19 19 20 20 21 21 21 21 21 21 21
9 7 7 8 8 8 6 5 3 3 2 2 2 3 4 4 4 5 6 6 7 6 7 8 9 10 11 12 12 13 14 15 16 17 17 18 19 20 20 20 20 21 21 21 22 22 22 22 22
9 8 8 9 9 8 6 5 3 3 2 2 3 4 4 4 4 4 5 6 6 7 7 8 9 10 11 13 13 14 15 15 16 17 18 19 19 20 21 21 21 22 22 22 23 22 22 22 22
11 10 10 10 10 9 7 5 3 2 3 2 3 4 4 4 4 4 5 5 6 7 8 9 10 10 11 12 13 14 14 15 16 16 18 18 19 20 21 21 22 22 23 23 23 23 23 23 22
13 12 11 11 11 10 7 4 3 3 2 3 4 5 5 4 4 4 5 6 6 7 8 8 9 10 11 11 12 12 13 14 15 16 16 17 18 19 20 21 22 22 22 24 24 24 24 24 23
15 13 13 12 12 11 7 5 5 4 3 3 4 5 5 6 5 5 5 6 6 6 7 8 8 9 10 10 11 12 12 13 14 15 16 16 16 18 19 20 21 22 22 22 23 24 24 24 24
16 15 15 14 13 11 7 6 6 4 4 5 5 6 6 5 6 6 5 6 6 6 6 6 7 8 9 10 11 12 13 13 13 14 15 16 16 17 18 19 20 20 21 22 23 24 25 25 25
18 17 16 15 13 11 9 7 6 6 5 6 6 6 7 6 5 5 5 4 4 5 6 6 7 8 9 11 12 13 13 13 13 14 14 15 16 16 17 18 19 19 20 20 22 23 24 25 25
19 17 16 14 13 12 10 8 7 7 6 6 6 6 7 6 5 4 4 3 3 4 4 5 6 8 9 11 12 13 14 15 15 14 14 15 15 16 16 17 17 19 19 20 20 21 22 24 24
19 18 17 15 14 12 10 8 7 7 7 6 6 6 6 5 4 3 2 2 2 3 4 5 6 8 10 11 12 13 14 15 15 15 15 15 16 16 16 17 17 18 18 19 20 21 21 22 23
20 18 16 14 13 11 9 8 7 7 7 6 6 5 5 3 3 3 2 1 2 2 4 5 7 9 11 12 13 14 14 15 15 16 16 16 17 17 16 17 17 17 18 19 20 20 21 22 23
20 17 14 14 12 10 9 8 7 7 7 6 6 4 3 2 3 3 1 1 1 3 5 6 8 10 12 13 14 15 15 15 15 16 16 17 17 17 17 17 16 17 18 18 19 19 20 21 23
18 16 14 13 12 10 8 8 7 7 7 6 5 4 3 3 2 1 0 1 2 4 5 7 9 11 12 13 14 15 16 16 17 17 17 18 18 17 17 17 16 16 17 17 18 19 19 20 22
18 17 15 13 12 10 9 8 7 7 7 6 6 5 3 3 2 1 1 1 3 4 6 8 10 12 13 14 15 16 17 18 18 18 18 18 18 17 17 16 16 16 16 17 17 17 18 19 20
17 16 14 12 10 9 8 8 7 7 7 7 6 5 3 3 2 1 1 1 3 4 6 8 10 12 13 14 15 17 18 18 18 19 18 18 18 17 17 16 16 15 15 15 16 16 17 18 19
16 14 12 11 11 10 9 7 8 7 7 7 6 5 4 3 2 2 2 1 3 5 6 8 10 12 13 15 16 17 18 18 19 19 19 18 18 17 17 16 15 14 14 14 14 15 16 17 18
15 13 11 11 10 9 8 7 7 7 6 6 6 4 4 3 2 2 2 1 3 5 7 8 10 12 13 15 16 17 18 19 19 19 19 19 18 17 17 16 15 13 12 12 12 13 13 15 17
13 12 11 9 9 8 7 6 6 6 6 6 6 5 4 4 3 3 1 2 3 5 7 8 10 12 13 15 16 17 18 19 19 19 19 19 18 18 17 16 15 13 11 10 10 11 12 13 15
12 10 9 8 8 7 7 6 5 5 5 5 6 6 5 4 4 3 2 2 3 5 6 8 10 12 13 14 16 17 18 18 19 19 19 19 18 17 17 16 14 12 10 9 9 9 10 11 13
10 9 7 6 6 6 6 5 4 4 5 5 6 6 6 5 4 3 2 2 4 5 6 8 9 11 13 14 16 17 18 18 19 19 19 19 18 17 17 16 14 12 10 9 8 8 8 9 11
8 7 6 5 5 4 4 4 4 4 5 5 5 5 5 5 4 3 3 3 4 5 6 7 9 11 12 14 15 16 17 18 19 19 19 19 18 17 16 16 14 13 11 9 8 7 7 8 9
7 7 6 5 4 4 4 4 3 4 3 3 4 4 4 5 5 4 3 4 5 6 6 7 9 10 12 13 15 16 17 18 19 19 19 19 18 17 16 15 14 13 11 9 7 6 6 7 8
7 6 6 5 5 4 3 4 3 3 3 2 3 4 4 5 4 4 4 4 5 6 7 8 9 10 11 13 15 16 16 17 18 19 19 19 19 17 16 15 14 13 11 9 7 5 5 6 7
7 6 6 5 5 4 3 3 3 2 2 2 3 4 4 4 4 4 5 5 6 7 7 8 9 9 11 13 14 15 16 17 18 18 19 19 19 18 16 15 14 13 11 9 6 4 4 4 5
7 7 6 6 5 4 3 2 2 1 1 1 2 3 3 3 4 5 6 6 7 7 7 8 8 9 10 12 13 14 15 16 17 18 18 19 19 18 17 16 15 13 11 9 6 4 3 3 4
7 6 5 5 4 3 3 2 2 1 1 1 2 3 3 4 5 6 7 7 8 8 8 8 8 9 10 11 13 14 14 15 16 17 18 18 18 18 17 16 15 13 11 9 7 5 3 2 2
6 4 4 4 4 3 2 1 2 2 3 3 3 4 4 5 5 6 7 8 8 8 8 8 9 9 10 11 12 13 13 14 15 16 17 18 18 17 17 16 15 14 12 10 8 6 4 2 1
4 3 3 3 3 3 3 3 4 4 4 4 4 5 6 6 7 7 8 8 8 9 8 9 9 10 10 11 11 12 13 13 14 15 16 17 17 17 17 16 15 14 12 10 8 7 5 3 2
3 2 2 3 4 5 5 4 6 6 5 5 5 6 6 7 8 9 9 9 9 9 9 9 10 10 10 11 11 12 12 13 13 14 15 16 16 16 16 16 15 14 12 10 9 7 6 4 3

GEFSSGP_500_meanwind_132.txt.gz
Wind_Speed
8 7 7 6 6 6 6 5 4 4 4 4 6 6 5 4 4 4 4 4 3 4 5 6 6 6 7 8 8 9 10 11 12 13 14 14 15 16 16 16 16 17 17 18 18 18 18 17 17
10 9 8 7 7 6 6 5 4 5 4 4 5 5 4 3 3 3 3 3 4 5 5 6 6 6 7 8 9 10 11 12 13 14 15 15 16 17 17 17 17 17 18 19 19 19 19 18 18
10 9 8 8 8 7 6 5 4 5 5 4 4 4 4 3 3 3 3 3 3 4 4 5 6 7 8 9 11 11 12 13 14 15 15 16 16 17 18 18 18 18 19 19 20 20 20 19 18
11 10 9 9 9 8 7 6 5 5 4 4 4 4 4 3 3 3 3 3 3 4 4 5 6 7 8 9 11 11 12 13 13 14 15 15 16 16 17 18 19 20 20 20 21 22 22 20 19
13 11 11 10 9 8 7 7 6 4 4 3 4 4 3 4 3 3 3 3 4 4 5 6 7 8 9 10 10 11 11 11 12 13 13 14 14 15 16 17 18 19 20 21 22 22 22 21 20
15 13 13 11 10 9 8 7 6 6 5 4 3 3 4 4 4 3 4 4 5 5 6 7 7 7 8 9 9 9 10 10 11 12 12 13 13 15 16 17 18 19 19 20 21 22 22 21 21
17 16 14 12 11 10 8 7 7 6 5 5 4 4 4 4 4 4 4 4 5 5 6 6 5 6 7 8 8 9 9 10 11 12 12 13 14 14 15 16 17 17 18 19 20 21 21 21 22
18 17 16 14 12 11 9 8 9 7 6 5 5 5 5 5 5 5 5 4 5 5 5 4 4 5 6 7 8 8 10 10 11 12 13 13 14 14 15 15 16 17 17 18 19 19 20 21 21
19 18 17 15 14 13 11 10 9 8 7 6 5 6 5 6 6 6 5 4 3 3 3 2 4 5 6 7 8 9 10 11 12 13 13 14 14 14 15 15 16 17 17 18 19 19 19 20 20
20 19 18 16 15 14 12 11 10 8 8 7 7 6 6 6 6 5 5 4 3 3 2 2 3 5 6 8 9 10 11 12 13 13 14 14 15 15 15 15 16 16 17 18 19 19 20 20 20
20 20 19 17 16 15 13 12 11 9 8 8 7 6 5 5 5 5 4 4 3 2 2 2 4 5 6 8 10 11 12 12 13 14 15 15 15 15 16 16 16 17 17 18 19 19 20 20 20
21 20 19 17 17 15 13 12 11 10 8 7 7 6 5 5 5 5 5 4 2 2 2 2 4 5 7 9 10 11 12 13 14 15 15 15 16 16 16 16 17 17 17 17 18 18 19 20 20
20 19 19 19 18 16 14 13 11 10 8 7 7 7 6 6 5 5 4 4 3 2 2 3 4 6 7 9 11 12 13 14 14 15 15 16 16 17 17 16 16 17 17 17 17 17 18 19 20
19 19 18 17 16 14 14 14 12 10 8 8 8 7 6 6 5 5 5 4 4 3 3 3 5 6 8 10 11 12 13 14 15 15 15 16 16 17 17 17 16 16 16 16 16 16 17 18 19
18 17 16 16 15 14 12 12 11 10 9 9 8 8 7 7 7 6 6 5 4 3 3 4 5 6 8 10 11 13 13 14 15 16 16 16 16 16 17 17 16 16 15 15 15 16 16 17 18
17 17 15 14 13 12 12 10 10 9 9 9 9 8 7 7 7 7 6 6 4 3 3 4 5 6 8 10 12 13 14 15 16 16 16 16 17 17 17 17 16 15 15 15 15 15 15 16 17
16 16 15 13 12 10 10 10 9 9 9 9 9 9 8 8 7 7 7 6 4 3 3 4 5 6 8 10 12 14 14 15 16 17 17 17 17 17 17 17 17 16 15 14 14 14 14 14 16
14 14 13 12 11 10 9 8 8 7 8 10 10 9 9 9 8 7 7 6 5 4 4 4 6 7 8 10 12 14 15 16 17 17 18 17 18 18 18 17 17 16 15 13 13 13 13 13 14
11 11 11 11 10 10 9 8 8 7 7 9 10 10 9 9 8 7 6 6 4 4 4 5 6 7 8 10 12 14 15 17 17 18 18 18 18 18 18 17 17 16 15 13 12 12 12 12 13
10 10 10 9 10 9 8 8 7 7 7 8 9 10 10 9 8 7 6 5 4 4 5 5 6 7 8 10 12 14 15 17 18 18 18 18 18 18 18 17 16 16 14 13 12 11 10 11 11
10 9 9 9 9 8 8 7 7 7 7 8 9 9 9 9 8 8 7 6 5 5 5 5 6 7 8 10 11 13 15 17 17 17 18 19 19 18 18 17 16 15 14 13 11 10 9 9 10
11 10 9 8 9 9 8 6 6 5 6 8 9 10 9 9 9 8 7 6 5 5 6 6 6 7 8 10 11 13 15 16 17 17 18 18 18 18 18 17 16 15 13 12 11 9 8 8 9
11 10 9 8 8 8 7 6 5 5 7 7 8 9 9 8 8 8 7 7 6 6 6 6 6 7 8 9 11 13 14 16 17 17 17 18 18 19 18 17 16 15 13 12 11 8 7 6 7
10 10 9 8 8 7 6 6 5 5 6 6 7 8 8 8 8 8 8 7 7 6 6 7 7 7 8 9 11 13 14 15 16 17 17 17 18 19 18 17 16 15 14 12 10 8 6 5 5
10 10 9 9 7 6 6 5 4 4 5 5 6 7 7 8 8 8 7 7 8 7 7 7 7 8 8 9 11 12 14 15 16 16 16 17 18 18 19 17 16 15 14 12 10 8 6 5 5
9 9 8 7 6 6 5 4 4 4 4 5 5 6 6 6 7 7 8 8 8 8 8 8 8 8 9 10 11 12 13 14 15 15 16 16 17 18 18 18 16 15 14 12 10 8 6 5 4
9 8 6 6 5 5 5 4 4 3 3 4 5 5 6 6 7 8 8 8 8 8 8 8 9 9 9 10 11 12 13 14 14 15 15 16 16 17 18 18 17 15 14 12 10 9 7 5 4
7 6 5 4 4 4 4 3 3 3 3 4 5 5 6 6 7 8 8 8 8 9 9 9 9 10 10 11 11 12 12 13 14 14 15 15 16 16 16 17 17 16 14 13 11 9 7 6 4
5 5 4 3 3 3 3 2 2 2 3 3 4 6 6 7 8 9 9 10 10 10 10 10 10 11 11 11 11 12 12 13 13 14 14 15 15 15 15 16 16 15 14 13 11 9 8 7 4
4 3 3 3 3 3 3 2 3 3 4 4 5 6 8 8 9 10 10 11 11 11 11 12 11 12 12 12 12 12 12 13 13 13 14 14 14 14 15 15 15 14 14 13 11 10 8 7 5

GEFSSGP_500_meanwind_138.txt.gz
Wind_Speed
7 6 5 4 4 3 2 3 3 3 3 4 4 5 6 6 5 5 5 4 4 3 3 3 3 2 3 4 5 6 7 8 9 10 11 11 12 12 13 13 13 13 14 14 13 13 13 13 13
9 7 6 5 4 3 4 4 3 3 4 4 4 6 7 7 6 6 5 4 4 4 4 3 3 3 3 5 6 7 8 9 10 10 11 12 12 13 13 13 14 14 15 15 14 14 14 14 14
10 8 7 6 6 5 5 5 4 4 3 4 4 5 6 6 6 6 5 4 4 4 4 3 3 3 4 5 7 8 9 9 10 10 11 12 12 12 13 14 14 15 15 15 15 15 15 15 15
11 10 9 8 6 5 5 5 4 3 3 3 4 5 5 5 6 5 4 4 4 4 3 3 4 4 5 6 7 8 9 9 9 10 11 11 11 12 12 12 13 14 14 14 15 15 16 16 15
13 11 10 9 8 7 6 6 5 4 4 3 3 5 5 5 5 4 4 4 3 3 3 4 4 5 6 6 7 8 8 8 9 10 10 10 11 12 12 12 13 13 14 14 15 16 15 16 15
15 13 12 11 10 9 8 7 5 5 4 4 4 5 5 6 5 4 4 3 3 3 3 4 4 4 5 6 7 7 7 8 9 9 10 10 11 11 12 13 13 13 14 14 15 16 16 16 17
17 15 13 12 11 10 9 8 7 6 5 5 5 5 5 6 6 5 5 4 4 4 3 4 4 4 4 5 6 6 7 8 9 9 10 11 11 12 12 13 13 13 13 14 15 15 16 16 17
18 16 15 14 12 11 10 8 8 7 7 7 7 6 6 6 6 6 5 4 4 3 3 4 3 3 4 5 6 6 7 8 9 10 11 12 12 12 13 13 13 13 14 14 15 16 16 16 16
19 18 16 15 14 13 11 10 9 8 8 8 7 7 6 6 6 6 5 5 4 4 3 3 3 3 4 5 6 7 8 9 10 11 12 13 13 13 13 13 14 14 14 15 15 16 16 16 16
20 19 17 17 16 14 12 12 10 8 8 8 7 7 6 6 6 6 5 5 4 4 3 3 3 4 4 5 6 7 9 10 11 12 13 13 13 13 13 14 14 15 15 15 15 16 16 17 17
19 18 18 17 17 15 13 12 11 9 9 8 7 7 7 7 6 6 6 5 5 4 4 4 3 4 4 5 7 8 10 11 12 13 13 13 13 13 14 14 15 15 15 16 16 16 17 17 17
19 18 17 17 16 16 14 13 12 10 10 9 8 8 8 7 6 6 6 5 4 4 4 3 3 4 5 6 8 9 11 12 13 13 13 13 14 14 14 15 15 15 15 16 16 16 16 17 17
19 18 17 16 15 15 15 14 11 11 11 9 9 8 8 8 7 6 6 5 4 4 4 3 4 5 6 7 8 10 11 13 13 14 14 14 14 14 14 15 15 15 16 16 16 16 17 17 17
18 17 16 15 14 14 14 13 12 11 11 10 10 9 8 7 7 7 6 5 5 4 4 4 5 6 6 7 9 10 11 12 13 14 14 14 14 14 14 15 15 15 15 15 15 15 16 17 17
17 16 14 14 13 12 11 12 12 11 11 11 11 10 9 8 7 7 7 6 5 4 4 4 5 6 7 8 9 10 11 13 13 14 14 14 14 14 14 15 15 15 15 14 14 14 15 16 16
16 15 13 12 12 11 10 11 12 11 11 11 11 10 9 9 8 8 7 6 5 5 4 5 6 6 7 8 9 10 11 12 13 14 14 14 14 14 15 15 16 16 15 15 14 14 14 14 15
15 14 13 11 10 10 10 11 11 11 10 10 10 10 9 9 8 8 7 7 6 5 5 5 6 6 7 9 9 10 11 12 13 13 14 15 15 15 16 16 16 16 15 15 14 13 13 13 13
14 14 12 11 9 10 10 9 10 10 9 8 9 9 9 9 8 8 8 7 6 6 5 6 6 7 8 9 10 11 11 12 13 13 14 15 16 16 16 16 16 16 15 14 13 12 12 12 12
14 13 12 10 9 10 10 10 10 9 8 7 7 9 9 9 8 8 7 7 6 6 6 6 7 7 8 9 10 11 11 12 13 13 15 16 16 17 17 16 16 16 15 13 12 11 10 10 11
12 11 11 10 10 9 9 9 8 7 6 7 7 8 9 9 9 8 8 7 7 7 7 7 7 8 9 9 10 11 12 12 13 14 15 16 16 17 17 17 16 16 15 13 12 10 9 9 10
11 11 11 10 10 9 8 7 7 6 6 6 7 8 8 8 8 8 8 8 7 7 8 7 7 8 9 10 10 11 12 12 13 14 15 16 17 17 17 17 16 16 15 13 12 10 9 8 8
11 11 10 9 9 9 8 7 6 6 5 6 6 7 8 8 8 8 8 8 7 8 8 8 8 9 9 10 10 11 12 12 13 14 15 16 17 17 17 17 17 16 15 13 12 10 8 7 6
11 11 10 10 10 9 8 7 6 6 5 5 5 6 7 7 8 8 8 7 7 8 8 9 9 9 10 10 10 11 11 12 13 14 14 16 17 17 17 17 16 15 14 13 11 9 7 6 5
11 11 10 10 10 8 8 7 6 5 4 5 5 5 6 6 7 7 7 7 8 8 8 9 9 10 10 10 10 11 11 12 13 14 14 15 16 17 17 17 16 15 14 13 11 9 7 5 4
11 11 10 10 9 8 8 7 6 4 4 4 4 5 6 6 6 7 7 7 8 8 8 8 9 10 10 10 10 11 11 12 13 14 14 15 16 17 17 16 15 14 13 12 11 9 7 6 5
11 11 11 9 8 7 7 6 5 4 4 4 4 5 5 6 6 7 7 8 8 8 8 9 9 10 10 10 11 11 11 12 13 13 14 15 15 16 16 16 15 14 13 12 11 10 8 6 5
10 10 9 9 7 7 6 5 4 4 3 3 4 4 5 5 6 6 7 7 8 9 9 9 10 10 10 11 11 11 12 12 13 13 14 14 15 15 15 15 15 14 13 12 11 10 8 7 6
9 9 9 8 7 7 6 5 4 3 2 2 3 4 4 5 6 6 7 8 9 10 10 10 10 11 11 11 11 12 12 12 13 13 14 14 15 15 15 14 14 14 13 12 11 10 9 7 6
8 8 7 6 7 7 5 5 4 3 3 3 3 4 5 5 6 7 7 9 10 11 11 11 12 12 12 12 12 13 13 13 13 14 14 14 14 15 15 14 14 14 14 13 12 11 9 8 7
7 6 6 6 5 5 5 4 4 4 4 3 4 4 5 5 6 7 8 9 10 11 12 12 13 13 13 13 13 14 14 14 14 14 14 14 15 15 14 14 13 13 13 13 12 11 10 9 7

GEFSSGP_500_meanwind_144.txt.gz
Wind_Speed
9 7 6 6 5 5 5 6 5 5 5 5 5 6 6 7 7 7 6 5 4 4 3 3 3 3 4 4 5 6 7 7 8 9 9 9 9 11 12 12 12 12 12 13 12 12 12 12 12
10 9 8 7 6 7 6 6 5 5 6 6 6 6 6 7 7 7 6 5 4 4 4 4 4 4 4 5 5 6 7 8 8 9 9 10 10 11 12 12 12 12 12 12 12 12 12 13 12
12 10 9 8 8 8 7 6 5 6 6 6 6 6 6 7 8 7 7 6 5 5 4 4 5 5 5 5 6 6 7 8 9 9 10 10 10 11 11 12 12 12 12 12 12 12 13 13 13
13 11 10 10 10 8 7 6 6 6 6 6 6 5 5 7 7 7 7 7 6 5 5 4 4 4 5 5 6 7 7 8 9 10 11 11 11 11 11 11 11 12 12 12 12 12 12 13 13
14 13 11 10 10 9 7 7 6 6 7 6 6 5 5 6 7 7 6 6 6 5 4 3 4 4 5 5 5 6 8 9 9 10 10 10 11 11 12 12 11 11 11 11 12 13 13 13 13
15 14 12 12 11 10 9 8 8 7 7 6 6 6 6 6 6 6 6 5 5 4 4 4 4 5 5 5 5 6 7 8 9 10 10 11 11 12 12 12 12 12 11 12 12 13 14 14 14
17 15 14 14 12 11 10 9 8 7 7 7 7 7 6 7 6 5 5 5 4 4 4 4 4 5 5 5 6 7 7 8 9 10 10 11 12 12 12 12 11 11 12 12 13 13 14 15 15
18 17 16 15 13 12 11 10 9 8 7 7 7 7 7 7 6 6 5 5 4 4 3 3 4 4 4 5 6 7 8 9 9 10 11 12 12 13 13 12 12 12 12 12 13 13 14 15 15
19 18 17 17 15 13 12 10 9 9 8 7 7 7 7 7 6 6 6 5 4 4 4 3 3 3 4 5 7 7 8 9 10 11 12 13 13 13 13 12 13 13 13 13 13 14 14 15 15
19 19 19 18 15 14 12 11 10 9 9 8 7 7 8 7 7 6 6 5 4 4 3 3 3 4 5 6 7 8 9 10 11 12 12 13 14 14 14 13 13 13 13 14 14 14 14 14 15
20 19 19 16 15 14 13 12 11 10 9 8 7 7 6 6 6 6 5 5 4 4 3 3 3 4 5 6 7 8 9 10 11 12 13 14 14 14 14 14 14 14 14 14 14 14 14 14 14
19 19 18 16 16 15 13 12 11 10 9 8 6 7 6 7 7 6 5 5 4 3 2 3 4 4 5 6 7 8 9 11 12 13 14 14 14 14 14 14 14 14 14 15 15 14 14 14 15
18 18 18 16 16 15 14 13 12 10 10 9 7 7 7 6 6 5 5 4 4 3 3 3 4 4 5 6 8 9 10 11 12 14 15 14 14 14 14 15 15 15 15 15 14 14 15 15 15
17 18 17 16 15 13 13 13 12 11 10 9 9 8 7 6 6 5 5 4 3 3 3 3 4 5 6 7 8 10 11 12 13 14 15 15 15 15 15 16 16 16 16 15 15 15 15 14 15
16 16 15 14 13 12 12 11 11 10 10 10 9 8 8 7 5 5 4 4 3 3 3 4 4 5 6 7 9 10 11 13 13 14 14 15 16 16 16 17 17 16 16 16 15 15 15 14 14
15 15 13 13 12 12 11 11 10 10 10 9 8 8 8 7 6 5 4 4 3 3 3 4 4 5 6 8 9 10 12 13 14 14 15 16 16 17 17 17 17 17 16 16 15 14 14 13 13
13 13 12 11 10 9 10 9 10 9 8 8 8 8 8 7 6 6 5 4 3 3 3 4 5 6 7 8 9 11 12 13 14 14 15 16 17 17 17 17 17 17 16 16 14 14 13 12 12
12 11 10 9 9 7 7 8 8 8 8 7 6 7 7 8 7 6 5 4 4 4 4 5 5 6 7 8 9 11 12 13 14 14 15 16 17 18 18 18 17 17 16 15 14 13 12 11 10
12 11 10 9 8 6 5 6 6 6 6 7 6 6 7 7 7 6 5 5 4 4 5 5 6 7 8 8 10 11 12 13 14 14 15 17 17 18 18 18 17 17 17 16 14 13 12 11 10
11 11 10 9 7 6 5 4 5 5 6 6 6 6 6 6 6 5 5 5 5 5 5 6 7 7 8 9 10 11 12 13 13 14 15 16 17 18 18 18 17 17 17 16 15 14 12 10 9
11 10 9 10 8 7 6 5 4 4 5 5 6 6 6 5 5 5 4 4 4 5 6 7 7 8 8 9 10 11 12 13 13 14 15 16 17 18 18 18 17 17 17 16 15 14 12 10 9
11 10 9 9 9 8 6 5 4 3 4 5 5 6 6 5 5 5 4 4 4 5 6 6 7 8 8 9 9 11 12 12 13 14 15 16 17 18 17 17 17 17 17 17 15 13 12 10 9
11 11 10 10 8 7 5 5 5 3 3 3 4 5 5 5 5 5 4 4 4 5 5 6 7 7 8 9 9 11 12 13 13 14 15 15 17 17 17 17 17 16 16 16 15 13 12 10 9
13 12 11 9 8 8 7 5 4 2 2 3 4 4 4 4 5 5 4 3 3 4 5 6 7 7 8 9 9 11 12 13 13 14 15 15 16 17 17 17 16 16 16 16 15 13 12 10 9
14 12 11 9 7 8 7 4 5 4 4 4 4 4 4 4 4 4 3 3 3 4 5 6 7 8 8 9 10 11 12 13 13 14 15 15 16 16 17 17 16 16 15 15 14 13 12 10 9
12 10 10 9 7 7 7 5 5 5 5 4 4 4 3 4 3 3 3 3 4 5 6 7 8 9 9 10 10 11 12 13 13 14 15 15 16 16 16 16 16 15 15 14 14 14 13 11 10
11 8 9 9 7 5 5 5 4 4 5 4 4 4 4 3 3 3 3 4 5 6 7 8 9 9 10 10 11 12 12 13 14 14 15 15 16 16 16 16 15 15 15 14 14 14 13 12 11
11 13 11 10 8 7 4 4 3 4 4 4 4 4 3 3 3 3 4 5 5 6 7 8 9 10 10 11 12 12 13 14 14 14 15 15 15 16 16 16 15 15 15 14 14 14 13 13 12
12 11 10 8 7 6 7 5 5 4 3 3 3 4 4 4 4 4 5 6 6 7 8 9 10 11 11 12 12 13 14 14 15 15 15 16 16 15 16 16 15 15 15 15 14 14 14 13 12
10 11 10 8 7 7 5 6 5 5 4 4 3 3 4 4 5 5 6 6 7 8 8 9 10 11 12 12 13 13 14 14 15 15 15 16 16 16 15 15 15 15 15 15 15 14 14 13 13

GEFSSGP_500_meanwind_150.txt.gz
Wind_Speed
8 6 5 4 4 4 3 2 3 3 3 3 3 4 4 4 3 4 5 4 4 3 3 2 1 1 2 2 3 3 4 5 5 7 8 8 8 8 9 10 10 9 9 9 9 10 11 11 11
10 8 7 6 5 5 4 4 3 3 4 3 3 4 4 4 4 4 6 5 4 3 3 2 1 1 2 2 3 3 4 5 6 7 8 8 8 8 9 10 10 10 10 10 10 10 11 11 11
11 10 8 7 7 7 6 5 5 4 3 3 3 3 4 3 4 5 6 5 4 3 3 2 2 1 1 2 3 4 4 5 6 7 8 8 8 8 9 9 9 9 9 9 10 10 10 11 11
13 12 10 9 9 8 7 6 5 4 3 3 4 4 4 4 5 6 5 5 4 3 3 2 1 1 1 2 3 4 5 6 7 7 7 8 8 8 8 9 9 9 9 10 10 11 11 11 11
14 13 12 11 10 9 7 6 4 4 3 3 3 4 4 4 5 6 5 5 4 3 3 2 1 1 2 3 4 5 5 6 6 7 7 8 8 8 9 9 9 9 9 9 10 11 11 12 12
15 14 14 13 12 9 8 6 5 5 4 4 5 4 4 5 5 5 4 4 4 3 3 2 2 2 2 3 4 5 5 5 6 6 6 7 8 8 9 10 9 9 9 10 10 11 12 12 12
16 15 15 15 13 11 10 8 6 5 6 5 5 4 5 5 5 5 4 4 3 3 3 2 2 2 2 3 3 4 5 5 6 6 7 7 8 9 9 10 10 10 10 10 11 11 12 12 13
17 17 16 15 14 12 11 8 7 6 5 5 5 4 5 6 6 5 5 5 5 4 3 2 2 2 2 3 3 4 5 6 6 7 8 8 8 9 10 10 10 10 10 11 11 11 11 12 12
18 18 17 16 15 13 11 9 7 6 6 5 5 5 6 6 6 6 6 5 5 4 3 3 2 2 2 3 3 4 5 6 6 7 8 8 9 10 11 11 11 11 11 11 11 11 11 11 11
17 17 17 17 15 13 11 10 8 6 6 6 6 6 6 6 6 6 6 6 5 4 3 3 2 2 3 3 4 4 5 6 7 7 8 9 10 10 11 11 11 11 11 11 11 11 11 11 11
17 17 16 15 13 12 10 9 8 7 6 6 5 5 6 6 6 7 7 7 5 4 4 3 2 2 3 3 3 5 5 6 7 8 9 9 10 10 11 11 12 11 11 12 12 12 11 12 11
18 18 16 14 13 11 10 8 9 8 7 6 6 6 5 6 7 7 7 7 6 5 4 3 2 2 2 3 4 5 6 7 7 8 8 9 10 10 11 12 12 12 12 12 12 12 12 12 12
17 17 16 13 12 11 9 8 8 8 8 7 7 6 6 6 6 7 7 6 6 5 4 2 2 1 1 2 4 5 6 6 7 8 8 9 10 11 11 12 12 13 13 13 12 12 12 11 11
18 16 15 13 12 11 10 8 8 8 8 8 7 6 6 6 7 7 7 6 5 4 3 1 1 0 2 3 4 5 5 6 7 7 8 9 11 12 13 13 13 13 13 13 13 12 12 11 10
16 15 13 13 13 12 11 9 9 9 8 8 8 7 7 7 7 8 7 6 5 4 2 1 1 1 2 2 3 4 5 6 7 7 8 10 11 13 14 14 14 14 13 13 12 12 11 10 10
15 14 13 13 13 13 11 9 9 9 8 8 8 8 7 7 7 8 8 7 5 4 3 2 1 1 2 2 3 5 6 6 7 8 9 11 12 13 14 14 15 14 13 13 12 11 11 10 10
14 13 13 13 13 12 12 10 10 10 10 9 8 8 8 8 8 8 8 7 5 3 2 2 1 1 2 3 4 5 6 7 8 9 10 11 12 13 14 15 15 14 14 13 13 12 11 10 9
13 13 13 13 13 12 11 11 11 10 10 9 9 8 9 9 9 9 8 7 5 4 3 2 1 1 2 3 4 5 6 7 9 10 11 12 13 13 14 15 15 14 14 14 13 12 11 10 9
13 13 12 11 13 12 12 11 11 10 10 10 9 9 9 9 10 9 9 7 5 4 3 2 1 2 2 3 4 5 7 8 9 10 11 12 13 14 14 15 15 14 14 14 13 12 11 9 8
13 13 12 12 13 12 12 11 11 11 11 10 10 10 9 9 9 9 9 8 6 5 3 2 2 2 3 4 5 6 7 8 9 10 11 12 13 14 14 14 15 15 15 14 13 12 10 9 7
12 12 13 12 12 12 11 11 11 11 11 11 11 10 10 9 9 9 8 7 6 5 3 3 2 2 3 4 5 6 7 8 9 10 11 12 13 14 14 14 15 14 14 14 13 12 10 8 7
13 13 12 12 12 11 11 11 11 11 10 10 11 11 10 9 8 8 7 6 5 4 3 2 2 3 4 4 5 6 7 8 9 10 11 12 12 13 14 15 15 14 14 13 13 12 10 9 7
13 14 13 12 12 11 11 10 10 10 10 10 11 11 10 9 8 7 6 5 5 4 3 2 2 3 4 4 5 6 7 8 9 10 11 11 12 13 14 14 14 14 14 13 12 12 11 9 7
13 14 15 14 12 11 10 10 10 9 9 9 10 10 9 9 8 7 6 5 5 4 3 3 3 4 4 5 6 6 7 8 9 10 10 11 12 13 13 13 14 14 14 13 12 12 11 9 8
13 13 14 14 12 10 10 9 9 9 9 9 9 9 9 9 8 8 6 5 5 4 4 3 4 4 5 6 6 7 7 8 9 10 10 11 12 12 13 13 13 13 13 13 12 12 11 10 8
13 12 12 11 11 10 9 9 9 9 8 8 8 8 8 8 8 7 6 6 5 4 4 4 4 5 5 6 7 7 8 9 9 10 10 11 12 12 12 12 12 13 12 12 12 12 11 10 9
13 13 12 10 10 9 8 9 10 9 8 8 7 7 7 6 6 6 6 5 5 4 4 4 5 5 6 6 7 7 8 9 9 10 10 11 12 12 12 12 12 12 12 12 12 12 12 11 10
12 12 12 11 10 9 9 9 8 7 6 6 6 6 6 5 6 5 5 5 5 5 5 5 5 5 6 6 7 8 8 9 10 10 11 11 12 12 12 12 12 12 12 12 12 12 12 11 10
11 11 11 11 9 8 7 8 8 7 6 5 5 5 5 5 6 5 5 5 5 5 5 5 6 6 6 7 8 9 10 10 10 11 11 12 12 12 13 12 12 12 12 13 13 13 12 12 11
11 10 9 9 8 7 7 7 6 6 5 5 5 4 4 5 5 5 5 6 6 5 5 6 6 7 7 8 9 9 10 10 10 11 12 12 13 13 13 13 13 13 13 13 13 13 13 13 12

GEFSSGP_500_meanwind_156.txt.gz
Wind_Speed
11 11 9 8 7 6 6 4 4 5 4 4 4 5 4 4 3 3 3 2 1 2 2 2 2 1 1 2 2 3 4 5 5 6 7 8 8 8 8 8 8 8 8 8 9 9 9 9 9
12 12 11 10 8 7 6 5 3 3 5 4 4 4 4 4 4 4 4 3 2 2 3 3 2 1 0 2 2 3 4 5 6 7 7 8 8 8 8 9 9 8 8 8 9 9 9 9 9
13 12 12 11 10 8 7 4 4 4 4 4 4 4 4 4 5 5 5 4 4 4 3 3 2 1 1 2 3 4 5 6 6 7 8 8 8 8 9 9 9 8 8 8 9 9 9 9 9
14 13 13 12 10 9 7 6 5 5 4 4 4 4 4 4 4 5 5 5 5 4 4 3 2 1 1 2 3 4 5 6 6 7 8 8 8 8 9 9 9 8 8 9 9 9 9 9 9
14 13 13 12 10 9 8 7 6 5 4 4 4 4 4 3 5 5 5 6 5 5 4 3 3 2 1 2 3 4 5 6 6 7 8 8 8 8 9 9 10 9 9 9 9 10 10 10 10
14 14 14 13 11 9 8 8 7 6 5 5 5 4 4 4 4 4 4 5 5 5 5 4 3 2 1 2 3 4 5 5 6 7 7 8 9 9 9 10 10 10 10 10 9 10 9 10 11
15 15 14 13 12 10 9 9 8 7 5 5 5 5 5 5 4 5 5 5 5 5 5 5 4 2 1 2 3 3 4 5 6 7 8 8 9 10 10 10 10 10 10 10 9 9 9 10 10
16 15 14 14 12 11 10 10 9 8 6 5 6 6 6 5 6 6 6 6 5 5 5 5 3 2 2 2 3 3 4 5 6 7 8 8 9 10 10 10 10 10 10 10 10 9 9 10 10
16 15 15 14 13 12 11 10 10 9 8 6 6 6 7 7 7 7 7 6 6 6 5 5 3 3 2 3 3 3 4 5 6 7 8 9 10 10 10 10 10 10 11 10 10 9 9 10 10
16 15 15 14 13 12 11 10 10 9 8 7 7 6 7 8 8 7 7 7 6 6 5 4 4 3 3 3 3 4 4 6 7 8 9 9 10 10 10 11 11 11 11 11 10 10 10 10 10
14 15 15 15 14 12 11 10 10 10 9 8 8 8 8 8 7 7 7 7 7 6 5 4 4 4 3 3 4 4 5 6 7 8 9 9 9 10 11 11 11 11 11 11 11 10 10 10 10
14 14 14 14 13 12 11 11 10 10 9 7 8 9 8 7 7 7 7 8 7 6 5 4 4 3 3 3 4 5 6 7 7 8 9 9 9 10 11 11 12 12 12 11 11 11 10 10 10
14 13 13 13 13 12 12 11 10 10 9 9 9 9 8 8 7 7 7 7 7 6 5 5 4 3 3 3 4 5 6 7 7 8 8 9 9 10 11 12 12 12 12 12 12 11 11 10 10
13 13 13 12 13 12 12 11 11 10 10 9 9 8 8 8 8 8 7 7 7 6 5 4 4 3 3 3 4 5 6 6 7 7 8 9 10 11 11 12 13 13 13 12 12 11 11 10 10
13 13 13 13 13 12 12 12 11 10 11 10 10 9 8 8 9 9 8 7 7 6 5 4 3 3 2 3 3 4 5 6 6 7 8 9 10 11 12 12 13 13 13 13 11 10 10 10 9
12 13 13 14 13 12 12 11 11 11 11 11 11 10 9 8 8 10 10 8 7 6 6 4 3 2 1 2 3 4 5 6 7 8 8 9 10 11 12 13 13 13 13 12 11 10 10 9 8
12 12 13 13 13 12 12 11 12 11 11 12 11 11 10 9 9 9 10 9 7 6 5 4 3 2 1 2 3 4 5 6 8 8 9 10 10 11 12 13 13 13 13 13 12 11 10 9 8
12 12 12 13 13 12 12 11 12 12 12 12 12 12 11 10 9 10 10 8 7 6 5 4 3 2 2 3 4 4 5 7 8 9 9 10 11 12 13 13 14 14 13 13 12 11 10 9 8
11 11 13 12 12 12 12 12 13 13 13 12 12 12 11 11 10 11 10 8 7 6 4 4 4 3 2 3 4 5 6 7 8 9 10 11 11 12 13 14 14 14 13 13 12 11 11 9 8
10 11 12 12 12 12 12 12 13 13 13 13 12 12 12 11 11 11 10 8 7 6 5 4 3 3 3 3 4 5 6 7 8 9 10 11 11 12 13 14 14 14 13 13 12 11 11 10 8
10 11 11 11 11 12 12 12 13 13 12 12 12 12 12 12 11 11 10 9 7 6 5 4 4 4 4 4 4 5 6 7 8 9 10 11 11 12 13 14 14 14 13 13 13 12 11 10 8
10 10 11 11 12 12 12 11 13 13 13 12 12 13 12 12 12 11 11 9 8 6 5 4 4 3 3 4 4 5 6 8 9 9 10 11 12 12 13 14 14 14 13 13 13 12 11 10 9
10 10 11 11 11 11 11 12 12 12 12 12 12 13 12 12 12 11 10 9 7 6 5 5 4 4 4 4 5 6 7 8 9 10 10 11 12 12 13 14 14 13 13 13 12 12 12 11 9
10 11 11 11 11 10 10 11 12 11 11 11 11 12 12 12 11 10 9 8 7 6 6 5 4 4 5 5 5 6 7 8 9 10 10 11 12 12 13 13 13 13 13 12 12 12 12 11 10
11 11 11 10 10 9 9 10 11 11 10 11 11 11 11 11 11 9 8 7 6 6 6 5 4 4 5 5 6 6 7 8 9 9 10 10 11 12 12 12 13 13 13 12 12 12 12 11 10
11 11 10 8 8 9 9 10 10 11 11 10 10 11 11 11 10 9 8 7 6 6 6 5 5 4 5 5 6 6 7 8 9 9 10 10 10 11 12 12 12 13 13 13 12 12 12 12 11
11 12 11 9 10 10 10 10 10 10 10 10 10 11 11 11 10 9 8 7 7 6 6 5 5 5 5 6 6 7 8 8 9 10 10 10 10 11 12 12 12 12 13 13 13 13 13 12 11
11 11 12 10 9 9 9 9 9 9 9 9 10 10 10 10 10 9 8 7 7 6 6 5 5 6 6 6 6 7 8 9 9 10 10 10 11 11 12 12 12 12 13 13 13 13 13 12 11
11 11 10 9 8 7 7 8 9 9 9 9 9 9 9 10 9 8 8 7 6 6 6 6 6 6 6 7 7 8 8 9 10 10 10 10 11 11 12 12 12 13 13 13 13 13 14 13 12
10 10 9 9 8 7 7 8 9 9 9 9 9 9 9 8 8 8 8 7 7 7 7 7 7 7 7 7 8 9 9 10 10 11 11 11 11 12 13 13 13 13 14 14 14 14 14 13 13

GEFSSGP_500_meanwind_162.txt.gz
Wind_Speed
11 10 9 7 6 5 4 4 3 3 3 4 5 6 6 6 6 6 5 4 4 5 4 3 2 2 1 1 1 1 1 1 2 3 3 4 4 4 3 4 4 4 4 4 4 4 5 5 5
12 12 10 9 7 6 5 5 4 4 4 4 5 6 7 7 7 7 6 5 5 5 4 3 2 1 1 2 1 0 1 2 3 4 4 4 4 4 4 5 5 4 4 5 5 5 5 5 5
13 12 12 10 9 7 6 5 5 5 4 4 5 6 7 7 7 8 7 6 6 5 4 3 2 2 2 1 0 1 2 3 3 4 5 5 5 5 5 6 5 5 4 5 5 5 5 5 5
13 13 12 11 10 8 7 6 5 5 4 4 5 6 7 7 7 7 7 7 7 6 4 3 3 3 2 0 0 1 2 3 4 4 5 5 6 6 6 6 6 5 5 5 5 5 6 6 6
14 14 13 12 11 9 8 7 6 6 6 5 6 6 7 7 7 7 7 7 7 6 5 4 3 2 1 1 1 2 2 3 4 4 5 6 6 7 7 6 6 6 6 6 6 6 6 7 7
15 14 14 13 12 10 10 8 7 7 6 5 6 7 7 7 7 7 7 7 7 6 5 4 4 3 2 1 1 2 2 3 4 5 6 6 7 7 7 7 7 7 7 7 6 6 7 7 7
15 14 14 13 11 11 10 9 8 7 6 5 6 7 7 7 8 8 8 7 7 7 6 5 4 4 2 2 2 2 2 3 4 5 6 7 8 8 8 8 7 7 7 7 7 7 8 7 7
15 14 14 13 12 12 11 9 8 8 7 6 7 7 8 8 9 8 7 7 7 7 6 6 5 4 3 2 2 1 2 3 4 5 6 7 8 8 9 8 8 8 8 8 7 7 7 7 7
14 14 14 13 12 12 11 10 9 9 8 8 8 8 8 9 9 8 7 7 7 7 7 6 4 4 3 2 2 2 3 4 5 6 7 8 8 9 9 9 9 8 8 8 8 7 7 7 8
15 15 14 14 13 12 12 11 10 9 9 9 9 9 9 9 9 8 8 7 7 8 7 5 4 4 3 2 3 3 3 4 5 6 7 8 9 9 9 9 9 9 9 9 8 8 8 8 8
15 15 15 15 14 13 12 11 11 10 10 10 10 9 9 9 9 8 8 8 8 8 7 6 5 4 3 2 3 3 4 5 6 7 8 8 9 10 10 10 10 9 9 9 9 9 8 8 8
15 15 15 15 14 13 12 12 12 11 10 10 10 9 10 9 9 8 8 7 7 7 7 6 5 4 4 3 3 3 4 5 6 7 7 8 9 10 10 10 10 10 10 10 10 9 9 8 9
15 15 14 13 13 13 12 12 12 12 11 11 10 10 10 11 10 8 8 8 8 7 6 6 5 4 4 3 3 3 4 6 7 7 7 8 9 10 10 10 10 10 10 10 10 9 9 8 9
14 14 14 14 13 13 12 12 12 12 12 12 11 11 10 10 9 9 8 8 8 7 6 5 5 4 3 3 3 3 4 5 6 6 7 8 9 10 10 11 11 11 11 11 10 9 9 8 9
13 14 14 13 13 13 13 12 13 12 13 12 12 11 11 10 9 9 8 8 7 7 6 5 4 3 3 2 2 2 4 5 6 6 7 9 10 10 11 11 11 11 11 11 10 9 8 8 8
12 13 14 13 13 14 13 12 13 12 13 13 12 12 11 10 9 8 7 8 7 6 6 5 4 3 2 2 2 3 3 4 5 6 8 9 10 10 11 11 11 11 11 11 10 9 8 7 7
11 12 13 14 13 14 13 12 12 12 13 13 13 12 12 10 9 9 8 8 7 6 5 5 4 4 2 2 2 2 3 4 5 7 8 9 10 10 11 11 11 11 11 10 10 9 7 7 6
10 12 13 13 14 13 13 12 12 13 13 13 13 12 12 10 9 10 9 8 7 6 5 5 4 4 3 2 2 2 3 4 6 7 8 9 9 10 10 11 11 11 11 10 9 9 8 7 6
10 11 12 13 13 13 13 12 12 13 13 13 13 12 12 11 10 10 9 9 8 7 5 5 5 4 3 2 2 2 3 4 5 7 8 8 9 10 10 10 11 11 11 10 10 9 8 7 6
9 10 12 12 13 13 12 11 12 13 13 12 13 13 12 12 11 10 10 9 8 6 5 5 4 4 3 3 2 2 3 4 5 6 7 8 9 10 10 10 11 11 10 10 10 9 8 7 6
9 10 11 12 12 12 12 11 11 12 12 13 13 13 12 12 11 10 10 9 8 7 5 5 4 4 4 3 2 2 3 4 5 6 7 8 9 9 10 10 10 11 11 10 10 10 9 8 7
9 9 10 10 11 11 11 11 11 12 13 13 13 12 12 11 11 10 9 9 8 7 6 5 4 4 4 3 2 2 3 4 5 6 7 8 8 9 10 10 10 10 11 10 10 10 9 8 7
9 8 8 9 9 9 9 10 11 13 13 13 12 12 12 11 10 9 9 9 8 7 6 5 5 4 4 3 3 3 3 4 5 6 7 8 8 9 9 10 10 11 11 10 10 10 9 8 7
9 8 8 8 8 7 9 10 11 12 13 13 12 12 12 11 10 9 9 8 7 7 6 5 5 4 4 4 3 3 4 5 6 6 7 7 8 8 9 9 10 10 11 11 10 10 9 8 8
10 9 8 7 7 7 9 9 10 11 12 12 11 11 12 11 10 9 9 7 7 7 6 5 5 5 4 4 4 4 5 5 6 6 7 7 7 8 8 9 9 10 10 11 10 10 9 9 8
10 9 9 8 8 7 8 8 9 10 11 10 10 10 11 10 10 9 8 7 7 6 6 6 5 5 5 5 5 5 5 5 5 5 6 6 7 8 8 9 9 9 10 10 10 10 9 9 8
11 10 9 8 8 8 8 8 9 10 10 9 9 9 10 10 10 9 8 8 7 7 6 6 6 6 5 5 5 5 5 5 5 6 6 7 7 7 8 9 9 9 10 10 10 10 9 9 9
10 10 9 8 7 7 8 8 9 10 9 10 10 10 10 10 10 9 8 8 8 7 7 6 6 6 6 6 6 6 5 5 6 6 7 7 8 8 9 10 10 10 10 10 10 10 9 9 9
10 10 10 9 7 7 7 8 10 10 9 9 10 10 10 9 9 9 9 9 8 8 7 7 7 6 7 7 6 6 6 6 6 7 7 8 9 10 10 11 11 11 11 11 11 11 11 10 10
10 10 10 9 8 7 8 9 10 10 9 9 10 10 10 10 9 9 9 9 9 9 8 8 7 7 7 7 7 7 7 7 7 8 9 9 10 11 11 12 12 12 12 12 12 12 12 12 12